GFSGBSN_925_temp_030.txt.gz
Temp
13 13 13 13 12 12 12 12 11 11 12 13 13 11 13 12 10 9 9 9 9 9 9 8 8 8 11 18 23 23 24 24 20 22 25 26 26 26 26 27 27 27 28 28 28 27 29
12 13 13 13 13 12 12 12 12 11 12 13 13 12 13 13 11 9 8 8 9 9 9 8 8 8 13 20 23 21 23 21 22 23 25 26 27 27 27 26 27 28 28 28 28 27 26
12 12 13 13 13 13 12 12 12 12 12 13 13 12 13 13 11 10 10 9 9 9 8 8 8 9 15 22 22 21 21 22 23 24 26 25 26 26 27 26 27 27 26 27 26 26 27
10 12 12 13 13 13 12 12 12 12 12 12 13 12 12 13 12 12 10 9 9 8 8 7 8 10 20 22 22 21 22 22 22 23 24 24 24 26 25 26 26 27 28 27 26 27 26
10 10 12 12 13 13 12 12 12 12 12 12 13 13 13 13 12 13 11 9 8 8 8 8 10 13 22 23 23 25 23 26 22 22 23 23 24 25 25 26 26 27 27 27 26 26 27
9 10 11 12 13 13 13 12 12 12 12 12 13 13 13 13 13 14 10 10 8 9 9 9 12 16 22 26 25 25 25 24 25 24 23 24 25 26 26 27 26 26 26 27 27 26 27
9 9 10 11 12 12 13 13 12 12 12 13 13 12 13 13 13 13 11 10 14 16 13 21 22 22 25 25 24 26 25 26 26 27 26 25 26 26 27 27 27 28 28 27 26 24 26
8 9 9 11 11 12 13 13 12 12 12 13 13 12 13 12 12 10 10 16 20 19 22 20 21 21 22 23 25 27 26 27 26 27 26 26 27 25 25 26 27 27 27 25 24 24 26
7 8 9 10 10 12 12 13 12 12 12 13 13 12 12 10 10 8 12 16 17 18 21 22 22 24 25 24 26 27 27 27 26 26 25 26 25 24 26 26 26 26 26 25 26 24 25
7 8 8 9 10 11 12 12 12 12 12 12 12 12 10 11 10 12 14 17 17 16 23 23 24 25 25 25 26 25 25 27 26 25 25 26 24 25 26 25 26 26 25 25 25 26 26
7 7 8 8 10 10 11 12 12 12 12 12 12 12 11 14 14 16 18 17 16 19 21 25 25 25 25 26 26 25 24 27 26 24 24 24 25 25 26 24 24 25 24 26 26 26 26
7 7 8 8 9 10 11 11 12 12 12 12 12 12 9 10 11 15 16 16 18 21 21 23 25 25 25 25 24 25 25 25 25 25 25 24 24 25 25 23 24 24 25 25 25 25 24
6 7 7 8 8 9 10 11 12 12 12 12 12 11 9 11 17 14 15 18 21 21 23 23 24 25 25 24 24 24 25 25 25 24 24 24 24 24 24 24 24 24 25 24 23 23 24
6 6 7 8 8 8 9 11 12 12 11 12 12 10 9 12 13 15 16 21 20 23 23 23 24 24 24 24 23 23 24 24 23 25 25 25 23 24 23 25 26 25 25 24 22 22 24
6 6 7 7 8 8 9 10 11 11 11 11 10 9 10 12 15 12 19 20 22 23 24 23 24 24 23 24 24 24 24 25 24 23 25 24 23 23 23 24 24 23 24 23 22 17 21
6 7 7 7 8 8 9 10 11 11 11 11 11 11 15 14 15 15 19 21 23 23 23 24 23 24 23 24 24 24 23 22 23 22 23 24 23 23 22 23 23 24 23 22 23 20 21
6 7 7 7 7 8 8 9 11 11 11 12 13 17 15 14 15 18 20 22 23 23 23 24 24 23 24 23 24 24 24 22 22 22 23 24 24 22 22 23 24 22 23 22 23 21 22
5 6 7 7 7 7 8 9 11 11 11 10 16 18 13 14 19 20 21 22 21 23 22 23 24 24 24 23 23 24 24 23 21 22 24 22 23 22 23 22 22 23 24 23 22 21 20
6 6 6 7 6 7 8 9 10 11 10 12 17 18 13 14 19 18 20 22 22 23 23 23 24 24 23 23 22 22 22 19 19 21 23 22 23 22 22 22 22 22 23 22 21 20 20
5 5 6 6 6 6 8 10 10 11 12 16 19 17 17 17 20 21 21 22 22 21 22 22 22 22 22 22 21 21 21 19 18 20 13 19 22 23 23 23 23 22 22 22 23 21 22
5 5 6 6 6 6 7 10 11 12 13 14 19 20 20 18 18 21 22 23 23 22 22 23 22 24 23 21 21 21 21 19 19 14 19 21 22 21 20 20 20 22 22 21 22 23 21
5 5 5 6 5 5 7 10 11 12 11 15 19 19 17 20 20 21 19 22 23 22 23 23 23 22 23 22 23 22 22 21 22 19 20 19 20 19 19 18 19 19 21 22 22 23 22
5 5 5 5 5 6 7 10 11 11 11 17 15 15 21 14 19 20 21 22 23 22 19 22 23 22 21 21 20 21 19 20 21 20 19 19 18 19 19 17 18 16 20 22 22 22 22
5 5 5 5 6 6 8 10 11 11 13 18 17 19 19 17 18 20 21 22 22 23 22 19 21 22 17 18 19 19 19 19 19 17 18 17 18 15 17 13 17 22 20 20 21 22 23
5 4 5 6 6 7 9 10 11 12 14 15 15 19 19 13 19 20 20 21 20 19 18 19 17 17 18 18 19 18 17 15 16 16 16 17 17 14 16 18 20 23 19 19 19 22 23
5 6 6 7 7 9 10 11 11 12 13 13 14 16 19 15 16 21 20 20 20 20 18 15 14 15 16 17 17 18 19 20 18 17 15 15 16 18 14 17 17 21 18 18 19 20 20
5 6 6 7 9 10 11 11 12 13 13 14 14 16 19 18 18 19 20 19 20 20 19 16 15 15 16 16 16 18 19 18 19 16 13 14 13 15 15 16 18 20 18 18 18 20 20
7 7 8 10 11 11 11 11 12 13 13 14 13 16 18 16 16 16 17 18 17 20 19 16 18 16 16 16 16 17 16 17 18 19 17 17 15 14 13 14 16 18 17 18 19 19 18
9 9 10 11 11 12 12 12 12 13 14 14 14 14 15 18 16 13 13 13 15 18 19 17 20 18 20 18 14 13 12 11 16 19 15 17 18 19 18 20 19 18 19 19 17 17 18

GFSGBSN_925_temp_033.txt.gz
Temp
11 12 13 13 13 13 13 13 12 12 12 12 11 12 12 12 13 13 10 9 9 9 9 9 8 8 11 20 25 24 24 24 22 22 26 28 27 28 28 29 30 29 30 30 30 28 28
9 10 12 12 13 13 13 13 13 12 12 12 12 13 12 12 13 13 11 10 8 9 9 9 8 9 13 21 26 25 23 22 24 24 27 28 29 29 29 29 29 30 30 30 30 29 29
9 10 11 12 12 13 13 13 12 12 12 12 12 12 12 12 13 13 13 10 9 9 9 9 8 10 17 23 26 25 24 25 26 26 28 28 28 28 29 28 29 29 29 29 28 29 29
9 9 10 11 12 12 13 13 13 12 12 12 12 12 13 12 12 13 11 9 9 9 9 11 9 13 20 25 25 26 26 26 26 26 27 27 27 27 28 29 28 28 29 28 28 29 29
8 9 10 10 11 12 12 13 13 12 12 12 12 12 13 13 13 13 12 9 9 8 10 10 11 16 24 24 25 27 27 28 26 26 26 25 27 27 27 27 27 28 27 28 27 30 29
8 8 9 10 11 12 12 12 13 13 12 12 12 12 13 13 13 13 13 10 11 11 12 12 15 18 23 27 27 27 27 27 27 26 26 26 27 27 27 27 26 26 27 28 28 29 29
8 8 9 9 10 11 12 12 12 12 12 12 12 12 12 13 13 13 12 12 17 18 17 22 25 25 27 28 27 28 28 27 28 27 27 27 27 26 28 28 28 28 28 29 29 29 29
7 8 8 9 9 10 11 12 12 12 12 12 12 12 12 13 12 12 11 19 22 21 22 23 24 25 25 26 27 29 28 27 28 27 27 27 26 27 28 28 28 28 28 28 28 28 28
7 7 7 8 9 9 10 11 12 12 12 12 12 12 11 12 11 9 14 18 20 19 22 25 26 25 27 26 28 29 29 29 27 25 25 25 24 27 27 28 28 28 28 28 28 27 28
7 7 8 8 8 9 9 10 11 12 12 12 12 12 11 12 11 16 17 19 18 18 22 25 25 27 27 28 27 29 29 29 26 25 27 25 27 27 26 27 28 27 28 28 28 27 26
6 7 7 8 8 8 9 10 11 12 12 12 12 12 12 13 15 18 20 20 19 19 21 27 27 28 28 27 28 27 28 29 27 26 27 26 27 27 27 27 27 26 27 28 28 28 27
6 7 7 7 8 8 9 9 10 11 12 12 12 11 11 9 12 17 18 18 19 20 22 25 27 26 26 27 27 28 28 29 28 27 26 26 27 28 27 27 27 27 27 27 28 28 26
6 6 7 7 8 8 8 9 10 10 11 11 11 11 10 13 18 17 17 19 21 21 26 25 26 26 26 26 26 27 26 26 26 25 25 27 27 27 27 27 27 28 27 25 24 25 25
5 5 6 6 7 8 8 9 9 10 11 11 11 11 10 13 15 15 18 21 20 25 25 27 26 26 26 27 26 26 26 26 27 27 26 25 24 27 27 27 27 27 27 25 23 24 26
4 5 5 6 7 7 8 9 9 9 11 11 10 9 11 12 13 14 20 20 22 25 27 25 26 25 26 26 26 26 26 27 27 27 25 26 25 26 26 27 27 27 25 27 25 22 23
4 4 5 6 7 7 8 8 9 9 10 10 11 11 14 14 13 15 19 21 24 26 27 26 25 26 25 25 25 26 26 27 26 26 27 27 25 26 25 26 26 26 27 25 25 22 23
4 4 4 6 6 7 8 8 8 8 10 11 14 16 19 15 14 18 19 22 25 26 26 26 26 26 26 26 26 26 26 26 26 26 27 28 26 25 25 25 27 25 25 25 26 25 23
4 4 4 5 7 7 7 8 8 8 10 10 15 17 16 15 17 19 21 23 24 26 25 26 26 26 26 26 26 26 26 27 26 27 26 26 26 24 25 26 26 26 26 26 23 24 23
4 5 4 5 7 7 7 8 8 8 10 12 16 18 15 17 18 19 22 24 25 25 25 25 25 26 27 26 25 26 26 22 23 25 26 25 25 24 24 25 25 25 26 26 25 23 23
3 4 4 6 7 8 7 7 7 8 10 13 18 17 15 16 21 22 22 23 23 25 26 26 26 26 25 25 26 25 25 22 22 24 16 20 25 25 24 25 26 24 25 26 25 22 23
4 4 5 6 6 7 8 7 7 8 11 13 19 20 20 18 21 22 23 23 24 23 25 26 25 25 25 24 24 24 25 22 21 16 21 24 23 25 25 24 24 25 25 25 25 25 24
3 5 5 5 6 6 7 6 7 8 11 12 19 22 22 21 21 22 21 23 24 25 25 24 25 26 26 25 25 24 25 24 24 22 23 23 23 22 21 23 23 23 24 25 25 25 26
4 5 5 5 6 6 6 6 6 9 10 14 18 21 22 20 21 21 23 24 25 25 23 26 26 26 25 24 24 24 25 25 25 23 23 22 22 21 21 21 21 18 22 24 25 26 25
4 5 5 5 5 5 6 6 6 9 10 16 18 21 20 19 22 22 23 24 25 25 24 24 26 25 21 23 23 23 23 22 22 21 23 21 21 19 19 15 16 24 24 24 24 25 26
5 5 5 5 5 5 5 4 6 9 11 13 17 19 21 16 22 23 23 23 25 24 24 23 21 22 23 23 21 20 19 17 20 21 21 22 20 17 16 20 23 24 24 22 22 23 24
5 5 5 5 5 5 5 5 6 9 11 9 14 18 23 19 21 23 23 24 23 22 20 18 20 21 21 21 20 20 20 22 21 20 19 19 20 20 17 16 16 22 22 21 22 21 22
5 5 5 5 5 5 6 6 7 10 11 10 15 16 23 22 24 23 23 23 24 24 22 18 18 18 20 19 16 20 21 22 20 19 14 16 16 16 17 17 20 23 21 21 20 20 21
4 5 5 5 6 6 6 7 9 10 11 10 15 15 21 21 20 20 23 23 23 24 20 20 19 19 19 18 18 20 18 20 21 22 19 18 17 15 17 15 16 21 21 20 20 21 21
5 5 5 5 6 7 7 9 11 11 11 12 16 15 19 21 18 17 16 16 19 22 24 20 23 21 21 21 18 18 15 14 19 20 21 20 21 21 20 21 21 22 21 22 21 20 20

GFSGBSN_925_temp_036.txt.gz
Temp
10 11 12 12 13 13 13 13 13 12 12 12 12 12 13 13 13 13 14 13 10 10 9 10 12 13 12 19 23 25 25 24 22 22 25 27 27 28 27 29 30 29 30 31 29 29 29
9 9 10 11 11 12 13 13 13 13 12 12 12 12 13 13 13 13 13 13 11 10 9 10 11 11 14 21 27 26 23 23 24 24 26 28 28 29 29 29 29 30 30 29 29 29 29
8 9 9 10 10 11 13 13 13 13 12 12 12 12 12 13 13 13 13 13 12 10 10 11 11 10 17 22 26 26 25 25 26 26 28 28 29 29 29 28 30 30 29 29 29 29 28
8 9 9 9 10 11 12 13 12 13 12 12 12 12 12 12 13 13 13 14 13 11 12 13 12 12 19 25 25 26 27 27 27 27 27 28 28 28 27 28 29 28 29 27 28 29 28
8 8 9 9 10 10 11 13 13 12 12 12 12 12 12 12 13 13 14 14 14 11 13 12 11 16 22 25 26 27 27 28 28 27 27 27 27 27 28 26 26 28 26 27 27 29 28
8 8 8 9 9 10 11 12 13 12 12 12 12 12 12 12 12 13 14 14 13 12 13 12 16 19 22 26 28 28 28 28 28 28 27 26 27 26 27 26 23 24 26 27 27 29 29
8 8 8 8 9 9 10 11 12 12 12 12 12 12 12 12 13 13 12 12 15 15 16 22 24 24 28 29 28 28 29 28 28 27 25 26 26 26 27 27 27 27 27 27 29 30 29
7 8 8 8 8 9 9 10 11 11 12 12 12 12 12 12 13 13 10 18 23 21 21 23 25 25 26 27 27 29 29 28 27 26 23 25 26 25 26 27 27 27 27 26 29 29 29
7 7 8 7 8 8 9 10 10 11 11 12 12 12 12 12 12 9 13 18 21 20 21 26 26 26 27 28 27 28 29 29 26 24 24 23 25 24 26 27 27 27 27 27 28 29 29
6 7 8 7 7 8 8 9 10 10 11 11 12 11 12 12 10 15 17 18 18 19 21 25 26 27 27 28 27 30 30 29 22 23 24 21 24 25 26 27 28 27 27 28 28 27 25
6 6 6 7 7 8 8 9 9 10 11 11 11 11 12 13 13 18 21 21 20 20 20 27 26 28 28 27 28 28 29 29 27 26 26 21 21 24 26 26 27 26 26 27 28 27 25
6 6 6 7 7 7 8 8 9 10 10 11 11 11 11 9 10 16 18 18 20 20 20 26 27 27 27 27 28 29 28 29 29 27 27 23 21 20 25 26 27 27 27 28 28 27 20
4 6 6 6 7 7 8 8 9 9 10 10 11 11 11 13 16 18 17 19 19 20 27 26 26 26 26 26 27 27 26 26 26 25 25 26 26 27 26 25 28 28 27 24 18 19 23
4 4 5 6 7 7 8 8 8 9 9 10 10 10 11 12 14 16 17 17 19 24 25 28 27 27 26 27 27 27 27 26 27 27 26 25 22 27 28 27 23 22 27 24 20 16 23
4 4 5 6 6 7 7 8 8 9 9 10 10 9 10 11 13 14 17 17 20 24 27 27 27 26 26 27 27 27 26 26 27 27 25 22 22 25 27 28 28 27 26 27 24 23 22
4 4 5 5 5 6 7 8 8 9 9 9 9 11 12 12 13 14 16 18 22 26 27 27 25 26 25 26 26 26 26 27 27 28 25 21 17 22 26 27 27 26 27 24 25 22 22
4 4 4 5 4 5 6 7 7 8 9 9 12 13 16 14 13 15 17 20 22 26 27 26 26 26 27 26 26 26 27 28 28 27 27 24 21 23 25 25 26 26 25 26 26 25 22
3 3 4 4 5 5 6 6 7 8 8 8 12 14 17 14 15 17 18 21 22 25 27 26 27 27 26 27 26 26 26 27 28 28 26 27 26 24 25 27 27 27 26 26 22 23 23
2 3 4 4 4 5 6 6 7 8 8 9 13 16 15 15 16 17 19 21 24 24 26 25 26 27 27 26 26 26 27 24 26 26 25 26 25 22 24 26 26 25 26 26 26 23 22
3 3 4 4 4 5 5 6 7 7 8 9 15 14 13 14 19 19 19 21 22 25 26 26 26 27 26 26 27 26 26 23 24 25 18 23 25 24 23 25 26 25 25 26 26 20 22
3 3 4 4 4 5 5 6 7 7 8 9 14 17 17 14 16 20 21 22 22 23 26 26 26 26 26 25 26 25 26 23 23 17 22 24 23 24 25 26 25 25 26 26 25 25 22
3 4 4 4 4 5 5 6 6 7 8 8 14 19 19 19 18 20 20 22 23 25 25 25 25 26 26 25 26 25 26 24 23 22 23 24 23 23 23 24 25 23 25 25 25 26 26
3 4 3 4 4 5 5 7 6 7 7 9 13 17 19 18 19 19 20 23 24 25 26 26 26 26 25 26 25 25 25 25 26 23 23 23 21 21 20 21 21 18 22 23 25 26 26
4 4 4 4 5 5 6 7 6 6 7 10 13 18 17 18 20 20 21 23 24 25 24 26 27 26 24 25 25 24 24 24 24 24 25 23 22 19 18 15 17 23 25 25 24 25 26
3 4 4 5 5 5 6 6 6 7 7 8 13 15 17 14 21 22 22 24 25 25 24 25 23 24 24 24 21 19 19 18 20 22 22 23 20 17 15 19 22 23 24 23 23 23 24
4 4 5 5 5 5 6 6 6 7 7 7 10 11 13 17 20 23 23 24 23 21 20 19 22 24 24 22 20 20 20 22 21 20 21 21 21 18 17 17 17 22 22 23 23 20 22
4 5 5 5 5 5 5 6 5 6 6 7 9 10 13 16 22 23 23 23 23 20 19 20 19 19 20 18 15 20 20 23 21 19 14 16 16 15 16 16 18 23 22 22 19 19 21
4 5 5 5 5 5 6 5 6 6 6 7 9 9 12 16 23 23 25 24 24 21 19 20 20 20 20 17 18 20 17 20 22 22 17 16 16 14 17 14 15 23 21 19 20 21 20
4 5 5 5 5 5 5 5 6 6 6 7 9 10 11 13 19 18 18 19 20 21 22 20 22 21 21 21 19 18 14 13 18 20 23 20 21 19 19 18 21 23 21 22 21 20 20

GFSGBSN_925_temp_039.txt.gz
Temp
9 9 10 11 12 13 13 13 13 13 13 13 12 12 12 12 13 13 14 14 14 14 11 13 13 12 13 14 18 25 25 24 22 21 22 22 23 24 23 24 24 24 26 26 24 22 21
9 9 9 9 12 12 12 12 12 13 13 13 12 12 12 12 13 13 13 14 14 14 12 14 12 12 12 17 25 25 25 23 22 22 23 23 24 26 25 25 25 26 27 27 23 24 23
8 9 9 9 9 10 11 10 12 13 13 12 12 12 12 12 13 13 13 14 14 14 12 13 11 10 13 16 25 25 24 25 24 24 23 25 26 25 24 23 25 26 27 26 23 23 22
8 8 8 9 9 9 10 11 12 13 13 12 12 12 12 13 13 13 13 13 14 14 12 12 10 10 13 23 25 25 26 25 25 25 26 27 27 25 26 24 24 26 25 24 27 24 22
8 8 8 8 9 9 10 10 12 12 12 12 12 12 12 12 13 13 13 14 14 14 13 12 11 11 16 23 24 26 26 26 26 27 27 27 26 24 23 22 21 23 23 25 25 24 23
8 8 8 8 8 9 9 10 11 12 13 12 12 12 12 12 13 13 14 14 13 12 13 11 12 14 17 24 26 27 27 27 27 26 26 25 23 22 21 21 20 22 23 23 24 24 24
8 8 8 8 8 8 9 10 10 11 12 12 12 12 12 12 12 12 13 14 12 12 13 16 19 19 24 26 27 27 28 28 27 25 22 20 21 20 22 23 25 25 23 23 25 25 23
7 7 8 8 8 8 8 9 10 10 11 11 12 12 12 12 12 12 12 12 18 18 16 18 19 21 23 25 25 26 28 25 24 21 20 19 19 22 24 25 25 23 23 24 25 28 25
7 7 7 7 8 8 8 8 9 10 11 11 11 11 12 12 12 11 12 15 19 18 16 21 23 21 24 25 25 25 26 25 22 20 20 19 22 24 25 24 24 23 24 25 24 27 27
7 7 7 7 7 8 8 8 8 9 10 11 11 11 11 12 11 13 13 19 19 17 15 22 23 24 25 25 24 27 27 25 23 22 21 21 22 23 23 24 25 24 26 25 25 24 22
6 6 6 7 7 7 8 8 8 8 9 10 11 11 11 12 12 12 17 18 19 18 16 24 24 27 26 24 26 26 28 26 22 22 21 21 22 21 21 23 26 24 25 25 24 24 22
5 6 6 6 6 7 7 8 8 8 9 10 10 11 11 10 10 15 17 17 19 16 17 24 25 24 24 24 25 26 27 28 26 23 22 22 22 21 24 25 25 24 26 24 21 21 20
6 5 6 6 6 6 7 7 8 8 9 9 10 11 10 11 13 15 16 15 15 15 24 24 24 25 24 24 24 25 25 24 22 22 20 23 23 23 23 23 24 24 22 19 17 16 17
5 6 5 5 5 6 7 7 8 8 8 9 10 10 10 11 13 14 14 14 15 20 21 26 24 24 23 24 24 24 24 22 22 23 21 21 20 23 25 22 22 24 22 18 18 16 17
5 5 5 5 5 5 6 7 8 8 8 9 9 9 9 11 13 12 13 15 16 21 23 24 25 23 23 24 24 23 23 22 23 24 21 21 21 21 23 22 24 24 22 23 18 17 15
4 4 4 4 4 5 6 7 8 8 8 8 8 9 10 11 12 12 13 16 18 22 23 24 23 23 22 23 23 23 22 24 24 24 21 20 20 20 21 23 24 25 24 21 18 19 19
4 4 4 4 4 4 5 7 7 8 8 8 9 10 13 12 12 12 13 16 18 22 23 23 24 24 24 23 23 23 23 25 24 23 21 19 20 19 20 21 22 23 22 23 22 19 17
4 4 4 4 4 4 5 6 7 8 8 8 10 11 14 12 11 12 14 16 18 21 22 22 25 24 23 23 23 22 23 23 25 24 23 20 18 16 20 22 24 25 23 21 15 20 18
4 4 4 4 4 4 5 6 6 7 7 8 10 12 12 13 12 12 15 16 18 20 21 22 24 24 25 23 23 22 22 22 22 23 23 23 21 17 20 22 23 24 24 24 22 17 19
3 3 3 4 3 4 5 4 6 7 8 8 10 11 12 12 15 14 14 16 17 20 20 22 23 23 23 23 24 23 20 22 22 20 18 21 22 19 17 20 23 22 22 23 21 14 17
3 3 4 3 3 3 4 4 5 6 7 8 10 13 14 13 13 15 16 17 18 18 21 22 23 23 22 22 23 23 20 20 22 18 22 20 20 23 22 22 24 23 23 22 22 20 17
3 3 3 3 3 3 4 5 4 6 7 7 10 14 14 15 15 14 16 17 18 20 21 22 21 23 22 22 22 21 22 20 20 20 21 21 19 21 21 22 21 21 22 21 22 23 23
3 3 3 3 3 4 4 4 4 5 6 7 9 10 14 14 14 14 16 18 19 20 21 23 22 22 22 22 22 21 21 20 21 19 18 19 18 15 18 17 18 15 19 20 21 22 22
3 3 3 4 3 4 4 4 5 5 6 8 9 12 13 14 15 15 18 19 19 20 20 23 22 21 22 20 19 18 18 19 19 19 20 17 17 12 12 13 14 18 23 22 21 20 19
3 3 3 3 3 4 4 4 5 5 6 7 9 10 12 9 16 16 18 19 20 20 20 22 22 21 19 19 16 16 13 16 19 21 20 18 14 12 12 12 16 19 21 22 20 18 19
4 4 4 4 4 4 4 5 5 5 6 7 8 7 10 12 15 18 18 19 18 18 16 18 17 17 21 16 12 16 14 17 17 19 17 17 15 11 11 12 12 16 21 21 21 15 18
4 4 4 4 4 4 4 5 5 6 7 6 7 7 9 12 16 17 18 18 19 15 14 15 16 16 18 8 11 12 14 19 15 15 13 10 11 11 8 9 12 19 20 21 15 14 18
4 3 4 4 4 4 5 5 6 6 7 7 6 6 9 11 14 18 19 20 18 16 14 15 15 14 14 12 12 11 11 14 15 17 14 13 11 9 11 10 13 19 20 16 15 17 16
4 4 5 5 5 5 5 5 6 6 7 6 7 7 8 9 12 14 17 17 20 17 15 14 16 16 15 14 12 10 12 9 14 13 18 14 14 12 13 12 15 18 16 15 15 14 15

GFSGBSN_925_temp_042.txt.gz
Temp
9 9 9 9 10 12 13 13 13 13 12 13 13 13 13 13 13 13 14 14 14 14 13 13 13 12 13 14 16 24 24 24 22 21 21 21 22 22 22 24 23 23 24 24 21 21 20
8 9 9 9 9 10 12 12 12 12 12 12 13 13 13 13 13 13 14 14 14 14 13 11 12 11 12 16 23 23 24 23 23 22 22 20 21 23 23 23 24 24 24 22 22 22 22
8 8 9 9 9 9 10 11 11 11 12 12 12 12 12 13 13 13 13 13 14 14 14 11 11 10 11 17 23 23 22 23 24 24 22 24 24 23 24 23 24 24 24 21 21 20 22
8 8 8 9 9 9 9 9 10 11 11 12 12 12 12 12 13 13 13 13 13 14 14 11 10 10 13 23 21 22 23 23 24 24 25 26 25 24 25 23 22 23 23 20 21 22 24
8 8 8 8 8 9 9 9 9 10 11 12 12 12 12 12 12 13 13 14 13 14 13 11 11 11 15 22 23 26 25 24 25 25 24 25 25 23 22 21 20 21 22 22 22 23 23
7 8 8 8 8 8 9 9 9 10 11 12 13 13 12 12 12 13 13 14 14 13 12 10 11 12 17 23 24 26 27 26 25 23 24 23 19 20 19 19 20 21 22 23 22 22 23
7 7 8 8 8 8 8 9 9 9 10 11 12 12 12 12 12 12 13 14 13 13 12 15 17 17 20 23 25 25 27 25 24 20 21 20 19 19 21 21 21 23 23 22 21 22 22
7 8 7 7 8 8 8 8 8 9 9 10 11 11 12 12 12 12 12 11 15 16 14 16 17 18 20 21 21 23 26 24 23 20 20 20 20 20 21 23 22 23 22 21 22 23 23
7 7 7 7 7 8 8 8 8 9 9 10 10 11 11 12 12 12 11 13 16 17 14 18 18 19 20 21 21 23 24 22 21 20 20 19 21 22 23 23 23 22 21 21 22 24 24
7 7 7 7 7 8 8 8 8 8 9 9 10 11 11 12 11 12 11 15 16 16 14 18 20 21 23 23 22 25 25 23 22 20 19 20 22 22 22 22 22 21 22 23 24 22 21
6 7 6 7 7 7 8 8 8 8 8 9 10 10 11 11 11 11 15 16 15 16 14 22 21 25 23 23 24 25 26 24 21 20 20 21 21 22 22 22 23 22 24 23 23 22 21
6 6 7 6 6 7 7 7 8 8 8 8 9 10 10 10 10 13 14 16 16 16 15 22 23 22 22 22 24 25 25 25 22 21 22 21 21 21 22 23 24 23 23 21 19 19 20
5 5 6 7 6 6 6 7 7 8 8 8 9 10 10 11 11 13 15 15 14 15 20 22 22 22 22 22 22 23 23 23 21 20 20 22 21 22 23 22 23 23 20 18 17 16 18
5 5 5 6 6 6 6 6 7 7 8 8 8 9 10 11 13 12 14 14 15 17 19 22 22 22 21 22 22 22 22 21 21 21 19 19 20 22 22 22 21 21 20 17 20 16 18
4 5 5 5 6 6 6 6 7 7 7 8 8 8 9 11 12 12 12 14 15 17 21 22 22 21 21 22 22 21 20 20 21 20 20 20 20 20 22 22 23 22 20 21 17 15 14
4 5 5 5 5 6 5 5 6 7 7 8 7 8 9 11 11 11 12 15 16 19 21 22 21 21 20 21 21 20 20 21 22 22 21 20 19 20 21 22 22 22 23 21 17 19 18
4 4 4 5 5 5 6 6 5 7 7 7 8 10 11 10 11 11 13 15 17 20 20 20 21 22 21 21 21 20 21 23 22 22 20 19 19 19 21 21 21 21 21 21 19 16 17
4 4 5 4 4 5 5 5 5 6 7 7 9 10 10 11 11 10 13 15 16 19 19 19 20 21 21 20 21 20 21 23 22 20 20 19 17 17 21 21 21 21 21 20 14 19 16
4 4 4 4 4 4 5 5 6 5 7 7 9 11 10 12 11 10 13 15 16 18 18 19 20 21 23 21 21 21 22 22 21 21 20 19 17 16 18 20 21 21 21 21 18 15 17
4 4 4 4 4 4 4 5 6 5 7 7 9 10 10 11 12 13 12 14 14 17 17 17 18 19 20 22 21 21 20 21 20 20 17 19 18 17 16 19 20 21 22 20 19 13 16
4 4 4 4 4 4 4 5 6 5 6 7 9 12 12 11 11 13 14 14 14 15 17 19 19 19 18 20 21 20 19 20 20 18 21 19 19 20 20 21 22 22 22 21 20 19 17
4 4 3 4 3 4 4 4 5 5 6 7 9 10 11 11 13 12 14 14 15 16 17 19 18 19 19 20 20 20 19 19 20 20 20 19 18 20 20 19 20 21 21 20 20 21 19
4 4 3 3 4 3 3 4 5 5 6 6 8 9 11 13 13 11 13 14 16 16 18 19 19 19 19 20 21 20 19 19 19 18 18 18 16 13 16 15 17 14 17 19 20 20 21
4 4 3 3 3 3 4 3 4 4 5 7 9 9 10 12 13 13 14 15 16 17 17 19 20 19 20 18 18 17 16 17 17 17 17 15 15 11 11 12 13 17 19 19 17 17 17
3 3 3 3 3 3 4 3 4 4 4 5 8 9 10 9 14 14 15 16 16 17 17 19 19 20 19 17 15 15 12 16 18 17 19 17 12 12 12 12 15 18 20 18 17 17 18
3 4 4 3 3 5 4 4 4 4 5 5 5 7 8 11 12 16 15 16 15 15 16 17 18 15 18 13 11 15 14 16 17 18 15 14 12 12 10 12 12 15 19 18 17 14 17
3 3 3 3 3 4 4 4 4 4 4 5 6 6 7 10 12 15 15 15 17 15 14 15 17 18 15 8 11 11 13 16 14 14 13 10 10 10 6 9 11 15 18 19 16 14 15
3 3 3 3 3 3 4 4 4 4 4 5 6 6 7 9 11 12 16 15 16 16 14 14 14 14 11 12 12 10 10 13 13 15 13 13 11 8 9 9 14 16 18 17 14 14 14
3 4 4 4 4 4 4 4 4 4 5 5 6 6 7 7 10 10 11 12 15 17 13 13 16 15 14 13 10 9 11 8 12 12 15 14 13 12 12 12 14 14 16 14 13 13 13

GFSGBSN_925_temp_045.txt.gz
Temp
9 9 9 9 9 10 11 12 13 13 13 13 12 13 13 13 13 13 13 13 13 13 13 14 14 14 14 14 16 23 23 23 22 21 20 20 21 21 21 22 22 21 23 21 21 19 20
8 9 8 9 9 9 9 10 12 12 12 12 12 12 12 13 12 13 13 13 13 13 13 14 13 13 12 16 22 22 23 22 21 20 20 21 21 21 21 22 22 23 20 20 20 20 21
8 8 8 8 8 9 9 9 10 11 11 12 12 12 12 12 13 12 13 13 13 13 13 13 12 11 10 16 22 22 22 22 22 21 21 22 22 23 23 22 23 23 21 20 21 21 22
8 8 8 8 8 8 9 9 9 10 10 10 12 12 12 12 13 13 13 13 13 13 13 12 11 11 12 21 21 22 23 23 23 22 22 23 23 22 22 22 21 23 21 20 22 22 23
8 8 8 8 8 8 8 8 9 9 10 10 11 12 12 12 12 12 13 14 13 13 12 11 11 11 14 21 20 25 24 24 24 23 22 23 23 21 20 21 19 19 21 21 22 22 22
7 8 8 8 8 8 8 8 8 9 9 10 10 12 12 12 12 12 13 14 14 12 11 10 10 12 16 22 23 24 25 24 24 22 23 22 18 19 17 18 19 21 21 21 20 22 22
7 7 7 8 8 8 8 8 8 9 9 9 10 11 11 12 12 12 13 13 13 12 11 15 16 16 18 21 22 23 25 23 22 21 20 19 19 19 20 20 20 21 22 21 21 23 22
8 7 8 8 8 8 8 8 8 8 9 9 9 10 11 11 11 12 12 10 14 13 13 15 16 16 18 19 19 22 24 23 22 20 20 19 19 20 20 21 22 22 22 22 22 22 21
6 7 8 7 8 8 7 8 8 8 8 9 9 10 11 11 11 11 11 13 14 13 13 16 16 17 18 19 19 20 23 21 21 19 19 19 21 21 22 22 22 22 22 22 22 21 22
6 6 7 7 7 8 8 8 8 8 8 8 9 10 10 11 11 11 11 14 14 13 14 17 17 18 20 20 21 22 23 22 21 20 19 19 21 22 22 22 22 21 22 21 21 21 20
6 6 6 6 8 7 7 8 8 8 8 8 8 9 10 11 11 11 13 14 14 14 14 20 19 22 20 21 23 22 24 23 20 20 20 20 20 20 21 22 22 21 23 21 22 21 21
5 6 5 6 6 8 7 7 7 7 8 8 8 9 9 10 10 13 14 15 14 14 14 20 21 20 20 21 23 23 23 23 21 20 21 20 20 21 21 22 22 23 23 19 18 18 18
5 5 5 5 6 6 8 7 7 7 7 8 8 8 8 10 11 12 14 14 14 13 19 21 21 20 20 20 21 23 22 21 20 19 19 21 21 21 22 22 22 22 19 17 17 16 17
5 5 5 5 6 6 6 7 7 7 7 8 8 8 8 9 11 12 13 14 14 16 17 20 22 20 20 20 21 21 21 20 20 20 17 19 19 21 22 22 21 21 20 16 20 16 17
5 5 5 5 5 6 6 8 6 7 7 7 7 7 8 9 10 11 12 14 14 16 19 20 21 20 20 21 21 21 19 19 19 19 19 18 19 20 21 21 22 21 19 20 16 15 13
5 5 5 5 5 5 5 7 7 6 7 7 7 7 8 9 10 11 11 15 16 17 19 19 19 20 19 19 20 19 19 20 21 20 20 19 20 20 20 22 22 21 21 19 16 19 19
6 5 5 5 5 5 6 6 8 6 7 7 7 7 11 10 10 9 11 14 16 18 19 18 19 20 20 19 19 18 20 21 20 20 20 18 19 19 20 19 20 20 20 19 18 15 16
6 5 5 5 5 5 5 5 7 7 6 6 6 8 9 10 11 11 11 13 15 17 18 18 18 18 19 19 19 19 19 21 20 18 19 18 17 17 19 21 21 21 20 18 14 18 14
6 5 5 5 4 5 5 5 7 7 6 6 7 9 9 11 11 11 12 13 15 17 17 17 18 18 19 19 19 19 19 20 20 19 18 18 17 16 18 19 20 21 19 19 16 14 15
6 5 5 5 4 5 5 5 6 7 5 6 7 8 9 10 12 12 12 13 14 16 16 16 16 18 19 20 20 18 19 20 18 20 16 17 16 17 18 18 19 20 21 19 17 13 16
6 5 5 5 4 5 4 5 5 5 5 5 7 10 11 11 10 12 12 13 13 15 15 16 15 16 18 18 20 19 19 19 19 16 18 19 19 18 18 20 20 21 21 18 18 18 16
6 5 4 4 4 4 4 5 5 5 6 5 7 10 9 10 12 12 13 12 13 14 15 15 16 18 17 17 19 19 18 18 19 19 19 17 17 19 19 18 18 20 20 18 18 19 17
5 5 4 4 4 4 4 5 6 5 5 5 7 8 9 12 11 12 12 13 13 15 15 16 17 17 17 17 17 18 18 18 18 17 17 17 15 13 17 15 17 14 16 18 19 19 19
5 5 4 4 4 4 4 5 5 5 4 5 8 9 9 10 11 12 13 13 13 14 14 16 16 16 17 17 17 16 15 15 16 16 16 14 13 11 11 12 13 18 18 18 17 16 16
5 4 4 4 4 4 4 4 4 4 4 3 7 8 9 8 12 13 12 13 14 15 14 15 17 18 15 18 15 16 12 16 17 14 16 15 11 11 12 12 15 18 16 16 17 17 17
4 4 4 4 4 4 4 4 4 4 5 3 6 8 8 9 12 14 12 13 13 13 13 14 16 16 16 13 11 15 14 15 16 16 14 12 11 12 9 12 13 15 17 17 16 14 16
4 4 4 4 4 3 4 4 3 4 4 4 5 7 7 8 10 13 13 13 14 13 13 13 15 15 14 9 10 12 13 16 14 14 13 10 9 11 7 9 12 14 17 17 16 14 14
4 4 4 4 3 4 4 3 4 4 4 3 4 6 7 7 9 10 10 13 13 14 13 13 14 13 10 12 11 11 10 13 12 14 13 14 11 8 8 8 14 15 16 16 14 13 13
3 3 4 3 4 3 3 3 4 4 4 3 5 5 6 7 8 8 8 9 9 12 14 11 15 13 13 12 10 9 10 7 11 12 14 15 13 12 12 12 14 14 15 14 13 13 12

GFSGBSN_925_temp_048.txt.gz
Temp
8 8 9 9 9 9 9 9 10 11 11 12 12 12 12 12 12 12 13 13 13 13 13 13 14 14 14 14 16 22 22 22 21 20 20 20 21 20 21 21 21 20 21 21 20 18 18
8 8 8 8 9 9 9 9 9 10 11 11 12 12 12 12 12 12 13 13 13 13 13 13 14 13 12 16 21 21 21 21 21 20 20 20 20 20 21 20 21 21 19 20 20 20 20
8 8 8 8 8 8 8 8 9 9 9 11 11 12 12 12 12 12 12 13 13 13 13 13 12 11 11 15 21 20 20 21 21 21 19 21 22 22 22 21 22 22 22 21 21 20 21
8 8 8 8 8 8 8 8 8 9 9 10 10 10 11 12 12 12 12 13 13 13 13 12 11 11 12 20 20 21 21 22 22 21 21 22 22 21 21 22 20 21 20 20 21 21 21
8 8 8 8 8 8 8 8 8 8 9 9 9 10 10 11 11 12 12 13 14 14 12 11 11 11 14 20 20 23 23 22 22 21 21 22 22 20 20 20 19 18 19 21 22 21 21
7 8 8 8 7 8 8 8 8 8 8 9 9 10 10 11 11 11 12 13 13 12 10 10 10 12 16 21 21 23 23 22 23 21 21 21 17 18 16 17 19 20 20 20 20 22 21
7 7 8 8 8 8 7 7 8 7 8 8 9 9 10 10 11 11 12 13 13 12 11 14 16 15 17 20 21 22 22 22 22 21 20 19 18 18 19 19 20 20 20 20 21 21 21
7 6 6 7 8 8 8 8 8 8 8 8 8 9 9 10 11 11 11 10 14 12 12 14 14 15 17 18 18 20 23 22 21 20 19 18 18 19 20 20 20 21 21 20 21 21 21
6 7 6 6 7 8 8 8 8 8 8 8 8 8 9 10 11 10 11 12 13 13 12 15 15 15 17 18 18 19 21 20 20 19 18 18 21 20 20 21 21 21 21 22 22 20 20
6 6 6 6 6 7 8 8 8 8 8 8 8 8 9 10 10 11 11 13 13 12 13 16 16 17 17 18 20 20 22 21 20 19 17 19 20 21 21 21 20 21 21 21 21 20 19
6 6 6 6 6 7 7 8 7 8 8 8 8 8 9 9 10 10 12 13 13 13 14 19 17 20 18 20 21 21 23 21 19 19 19 20 20 20 20 20 21 20 22 21 21 18 19
6 6 5 6 6 6 7 7 7 7 8 8 8 8 8 8 9 12 12 13 13 14 14 19 19 18 19 20 22 21 22 20 19 19 20 20 20 20 20 21 21 22 21 18 16 17 18
6 6 5 5 6 6 6 6 8 7 7 8 8 8 8 8 10 11 12 12 14 13 18 19 19 19 19 19 20 21 20 19 19 18 19 20 20 21 21 21 21 20 18 17 16 15 17
6 6 5 5 5 6 6 6 6 8 7 7 8 8 8 8 9 11 12 13 13 15 16 19 20 18 19 19 20 20 19 18 19 18 16 18 18 20 20 21 20 20 18 16 19 16 18
5 6 6 5 5 5 6 5 6 7 7 7 7 7 7 8 9 10 11 13 15 15 17 18 20 19 19 20 20 20 18 17 18 18 19 17 19 20 20 21 21 20 19 18 15 14 13
6 6 6 6 5 5 5 5 6 6 7 7 6 7 7 8 9 9 10 14 15 16 18 18 18 19 17 18 19 18 17 19 20 18 19 18 20 19 20 21 21 21 18 18 15 18 18
6 6 6 6 5 5 5 5 6 6 7 7 6 7 8 8 9 10 11 13 15 17 17 17 17 18 18 18 18 17 18 20 19 18 19 18 19 19 20 20 20 19 19 17 16 14 16
6 6 6 6 5 5 5 5 6 6 7 6 6 6 8 9 10 11 12 12 14 17 17 17 17 17 18 18 18 18 19 20 18 17 19 18 16 16 19 20 20 19 18 17 15 18 14
6 5 5 6 5 5 5 5 5 5 7 6 6 7 8 10 10 11 12 13 13 15 15 16 16 17 18 19 19 18 17 19 17 18 17 17 16 16 17 18 19 20 19 17 15 13 14
6 5 5 6 5 5 5 5 5 5 6 6 6 6 8 9 12 11 12 13 13 14 15 16 15 16 18 18 18 19 19 19 17 18 16 18 15 17 18 18 17 18 18 17 16 13 15
6 6 5 6 5 5 5 5 5 6 6 6 6 7 9 9 9 11 12 13 13 13 15 15 15 15 17 17 18 18 19 18 18 15 17 18 17 17 18 19 19 19 19 16 17 17 17
6 6 5 6 5 5 5 5 5 6 5 5 6 7 9 10 10 9 11 12 12 13 14 15 14 15 15 15 17 19 18 18 18 16 16 16 17 18 18 18 18 19 19 16 17 18 17
6 6 5 6 5 5 5 5 5 6 5 5 5 6 8 11 10 9 10 12 12 13 14 15 15 15 15 16 17 18 17 17 17 17 15 16 14 13 17 15 17 14 16 17 17 17 17
6 6 5 6 5 5 5 5 5 5 5 6 5 6 8 9 10 10 11 12 12 13 13 15 15 15 16 17 17 17 15 15 15 16 15 13 13 11 11 12 14 18 16 17 16 16 16
6 6 5 5 5 4 5 5 4 5 5 5 6 7 8 8 10 11 12 11 12 13 13 14 15 16 16 17 15 16 12 16 15 13 14 13 11 11 12 12 15 18 16 15 16 16 14
6 6 5 5 5 4 4 4 4 4 5 5 6 7 7 8 10 12 11 12 11 12 11 12 14 14 16 12 12 15 13 15 15 16 13 12 10 12 9 12 13 15 16 15 16 14 14
6 6 5 5 4 4 4 4 4 4 4 4 6 5 6 8 10 11 11 12 12 11 11 11 13 13 13 7 9 12 14 14 13 14 13 10 9 10 6 10 12 14 16 16 16 14 13
5 5 5 4 4 4 4 4 4 4 4 4 5 4 5 7 8 9 8 11 12 12 10 10 11 12 9 11 11 11 9 12 12 14 13 14 11 9 8 9 14 14 15 15 14 13 12
4 4 4 4 4 4 4 4 4 4 4 4 4 4 5 7 8 7 8 9 9 12 12 10 12 11 12 12 9 7 9 6 12 13 13 15 14 12 13 13 14 13 14 14 12 12 11

GFSGBSN_925_temp_051.txt.gz
Temp
8 8 8 8 8 8 8 8 8 9 10 10 11 12 12 12 12 12 12 12 12 12 13 13 13 14 15 15 17 21 22 21 20 20 20 20 21 21 22 21 21 21 22 21 21 20 20
8 8 8 8 8 8 8 8 8 8 9 9 10 12 12 12 12 12 12 12 12 12 12 12 13 14 13 17 20 20 21 20 21 20 19 20 21 21 22 22 22 22 21 21 20 20 20
8 8 8 8 8 8 8 8 8 8 8 9 9 11 11 11 11 11 11 12 12 12 12 12 12 12 11 17 20 19 20 20 21 21 20 20 21 22 22 22 22 22 22 22 22 21 22
8 8 8 8 8 8 8 8 8 8 8 8 9 9 10 10 11 12 11 11 12 12 12 12 11 11 14 19 19 19 19 20 20 20 21 21 21 21 21 21 22 22 21 22 23 22 21
7 7 8 8 8 8 8 8 8 8 8 8 8 9 9 10 11 11 11 11 12 12 11 10 10 11 15 19 19 21 21 21 20 20 20 21 21 20 21 21 21 21 22 22 23 22 22
7 7 7 7 8 8 8 8 8 8 8 7 8 8 9 9 10 10 11 12 12 11 9 9 10 13 16 20 20 21 21 21 22 20 20 21 19 21 20 21 22 22 22 22 23 22 21
7 7 7 7 7 7 8 8 8 8 8 8 7 8 9 9 9 10 11 12 13 12 10 15 16 16 17 19 19 21 21 21 21 21 21 19 21 21 21 20 21 21 21 22 22 22 23
6 6 6 7 7 7 7 8 8 8 8 8 7 8 8 8 10 10 11 10 12 11 12 14 14 15 16 18 18 19 21 22 21 21 19 20 20 21 20 20 20 21 21 22 22 22 21
6 6 6 6 6 7 7 7 8 8 8 8 8 8 8 8 10 10 11 11 12 12 12 15 14 15 17 17 18 19 21 20 20 19 19 20 21 19 20 21 21 21 21 21 22 22 21
6 6 6 6 6 6 7 7 7 8 8 8 8 7 8 9 9 10 10 12 12 12 13 16 16 16 17 18 19 20 21 22 20 21 19 20 20 20 20 21 21 21 21 21 21 22 22
6 6 6 6 6 6 6 6 7 7 8 8 8 7 8 9 9 9 11 12 12 12 15 19 16 18 17 20 21 20 21 21 20 19 20 21 19 20 20 21 21 22 21 21 21 21 21
6 6 6 6 6 6 6 6 6 7 8 8 8 8 8 8 8 10 11 11 12 14 14 18 18 17 17 19 20 19 21 20 19 19 19 20 19 20 21 21 21 21 21 19 19 20 20
6 6 6 6 6 6 6 6 6 6 7 8 8 8 7 8 10 10 11 12 13 14 17 19 18 18 18 19 19 20 20 19 20 19 19 20 20 20 20 21 21 21 21 20 20 20 20
6 6 6 6 6 6 6 6 6 6 7 7 7 7 7 8 9 10 11 12 13 15 16 18 19 18 18 19 19 19 19 20 19 19 18 20 20 20 20 22 22 20 21 20 20 20 21
6 6 6 6 6 6 6 6 6 6 7 6 7 6 7 7 9 9 11 12 15 15 17 18 19 18 18 19 20 20 19 20 20 19 21 18 20 20 20 21 22 20 21 20 17 15 18
6 6 6 6 6 6 6 6 6 6 6 6 6 6 7 7 8 8 10 13 14 16 18 18 18 19 18 18 19 19 18 19 19 19 20 19 20 19 20 21 20 20 20 20 18 19 19
6 6 6 6 6 6 6 5 6 5 6 6 6 6 8 7 7 9 11 13 15 16 17 17 16 17 18 18 19 18 18 20 19 18 19 18 20 19 20 21 21 20 20 18 19 18 20
5 5 6 6 6 6 6 5 6 5 6 5 6 6 7 7 8 10 11 13 14 16 16 17 16 16 17 18 17 18 19 21 18 19 20 19 18 18 20 19 20 20 20 20 19 19 16
5 5 5 6 6 5 5 5 5 5 6 5 5 6 6 8 9 10 12 12 14 15 16 16 16 16 17 17 18 18 18 19 16 19 19 18 18 19 20 19 19 20 19 18 17 16 17
5 5 5 5 6 6 5 5 5 5 5 5 6 6 7 7 11 11 11 12 12 14 15 16 16 16 17 17 17 18 18 18 16 18 15 19 17 19 20 21 19 18 19 18 19 17 19
5 5 5 5 6 6 6 5 5 5 5 5 5 7 8 7 8 10 12 12 12 13 14 15 14 16 16 17 17 17 18 18 17 15 17 19 19 17 18 19 19 20 20 18 19 19 20
5 5 5 5 5 6 6 5 5 5 5 5 5 7 7 10 9 9 11 12 12 13 14 14 15 15 16 16 17 18 17 18 18 16 17 16 19 17 18 17 18 19 19 18 18 18 18
4 5 5 5 5 6 6 5 5 5 5 5 6 7 9 10 9 9 10 12 13 13 14 15 15 15 14 16 17 16 16 17 18 18 16 16 15 16 18 16 17 16 17 18 18 18 20
5 5 5 5 5 5 6 5 5 5 5 6 6 7 8 9 8 9 10 11 12 13 13 14 15 15 15 16 17 16 15 15 15 15 16 15 15 14 14 13 16 20 17 18 19 18 18
5 5 5 5 5 5 5 5 5 5 5 5 6 6 7 8 10 10 10 11 12 13 13 14 14 15 15 16 14 16 14 15 14 14 14 15 13 13 15 16 17 18 17 18 18 21 18
5 5 5 5 5 6 5 5 5 5 5 5 6 6 7 9 9 11 11 11 11 12 11 12 14 14 14 12 13 13 15 15 16 15 13 12 12 16 12 16 17 18 18 16 18 18 17
5 5 5 5 5 5 5 5 5 5 5 5 4 7 6 7 8 10 11 11 12 11 11 11 13 13 14 9 11 12 14 16 16 14 14 13 12 15 12 15 16 16 16 16 18 20 16
5 5 5 5 5 5 5 5 5 5 5 5 4 6 6 7 8 8 8 10 11 12 11 10 12 12 10 11 11 12 11 14 14 14 14 15 14 13 12 14 17 15 15 18 19 15 15
5 6 5 5 5 5 5 5 5 5 5 5 3 5 5 5 7 7 7 8 10 13 12 11 12 12 12 12 10 10 11 9 14 16 13 15 16 16 16 17 16 15 18 16 14 16 13

GFSGBSN_925_temp_054.txt.gz
Temp
8 9 8 8 8 8 8 9 8 8 9 9 10 11 11 12 12 12 12 12 12 12 13 12 13 13 14 20 23 21 22 21 20 20 23 25 25 26 26 26 26 25 27 26 26 24 25
8 9 9 8 8 8 8 8 8 8 8 8 9 9 10 11 11 11 12 11 11 12 12 12 12 13 15 20 21 21 20 19 21 21 23 24 26 26 26 26 26 26 26 25 25 25 25
7 8 8 9 9 8 8 8 8 8 8 8 8 9 9 11 11 11 11 12 11 11 12 12 12 11 15 19 20 19 19 21 21 23 24 24 24 25 26 26 26 26 25 26 26 25 25
7 7 7 8 8 9 8 8 8 8 8 8 8 8 9 9 9 10 11 11 11 11 12 12 13 11 18 19 18 18 20 21 20 21 22 23 23 25 25 26 26 26 26 26 26 26 25
7 7 7 7 7 8 8 8 8 8 8 8 8 8 8 9 9 10 11 11 11 12 11 11 11 13 19 18 19 21 20 23 22 21 22 22 24 25 25 26 26 26 26 26 26 27 26
7 7 7 7 7 8 8 8 8 8 8 8 8 7 8 9 9 10 11 11 12 11 10 10 11 15 19 23 22 21 21 22 24 23 23 24 25 25 26 26 25 26 25 27 26 27 26
7 7 7 7 7 7 7 8 8 8 8 8 8 7 8 8 9 10 11 13 16 16 13 19 20 20 22 22 20 22 22 22 24 25 25 25 25 25 26 25 25 26 26 26 27 26 26
6 6 6 6 7 7 7 7 8 8 8 8 8 8 8 8 9 10 11 14 15 13 16 18 17 19 19 19 22 23 22 24 24 24 24 24 24 26 25 24 24 25 25 26 26 25 25
6 6 6 6 6 6 7 7 7 7 7 8 8 8 7 8 9 9 12 14 13 13 16 19 19 19 20 19 21 24 24 25 24 24 24 25 25 24 24 24 24 25 25 26 26 26 26
6 6 6 6 6 6 6 7 7 8 7 8 8 8 7 8 9 11 13 12 12 12 17 21 18 20 19 22 21 24 24 25 24 24 25 25 26 24 24 24 25 24 26 25 25 25 25
6 6 6 6 6 6 6 6 7 7 7 7 8 8 8 7 10 12 13 12 11 13 18 22 19 20 20 22 24 23 24 24 24 24 24 24 24 23 24 25 25 25 24 25 25 25 25
6 6 6 6 6 6 6 6 6 7 7 8 7 7 7 8 8 11 11 11 13 17 17 21 20 19 18 21 23 24 23 24 26 24 24 26 24 24 25 25 25 25 24 24 24 25 23
6 6 6 6 6 6 6 6 6 6 7 6 7 7 7 8 11 11 10 14 16 17 21 22 21 20 20 21 22 23 23 22 23 22 23 24 24 25 24 24 24 24 24 23 22 23 23
6 6 6 6 6 6 6 6 6 6 7 6 7 7 7 7 9 9 11 14 16 20 21 21 21 20 20 22 23 23 23 23 24 25 24 23 23 24 25 25 25 24 25 23 21 22 24
6 6 6 6 6 6 6 6 6 6 6 7 6 6 6 7 8 9 11 13 18 19 21 20 21 20 20 21 23 23 23 24 24 25 24 23 24 24 24 25 25 24 23 25 23 20 22
6 6 6 6 6 6 6 6 6 6 6 7 6 6 7 7 8 7 10 15 18 21 21 20 21 22 21 20 20 22 23 24 24 25 26 24 23 24 23 24 23 24 25 23 23 21 21
6 6 6 6 6 6 6 6 6 6 6 6 6 6 8 8 7 7 10 15 18 20 20 20 21 21 21 21 22 22 22 23 24 23 25 25 24 22 23 23 25 23 23 23 24 23 22
4 6 6 6 6 6 6 6 6 6 6 6 6 6 8 7 6 7 11 15 17 19 19 19 19 20 20 21 21 22 23 24 24 25 23 25 24 23 24 23 24 26 25 24 23 22 22
5 5 4 5 6 6 6 6 6 6 6 6 6 6 7 9 7 7 11 14 17 18 19 18 19 19 19 19 20 22 22 24 23 23 24 23 23 22 22 22 23 24 24 25 24 22 23
5 5 5 5 5 5 5 6 6 5 5 6 5 6 6 7 13 11 11 13 14 17 18 19 19 19 19 19 19 20 21 21 21 24 19 22 24 23 22 24 25 23 24 24 24 22 23
4 4 5 5 5 5 5 5 6 5 5 6 5 7 8 7 10 12 12 14 14 15 17 18 18 19 19 18 19 19 20 20 19 17 21 23 23 24 24 25 25 25 25 24 24 24 24
4 5 5 5 5 5 5 5 5 5 5 5 5 9 10 11 10 12 13 13 15 16 17 17 18 18 19 19 20 18 19 20 21 19 21 22 23 23 23 24 24 24 25 25 25 25 24
5 5 5 5 5 5 5 5 5 5 5 6 7 10 12 11 11 11 13 13 14 16 17 18 18 18 17 18 19 19 18 19 20 20 20 21 22 21 21 22 22 18 22 24 24 24 24
5 5 5 5 5 5 5 5 5 5 5 7 8 10 10 11 11 11 12 13 14 15 15 17 18 17 18 18 18 18 17 18 19 20 21 20 21 21 20 16 17 24 23 25 25 25 25
5 5 5 5 5 5 5 5 5 5 5 6 7 10 11 10 12 12 12 13 14 15 15 16 17 18 17 17 16 16 16 15 18 19 19 20 20 19 18 20 23 21 21 22 23 24 26
5 5 5 4 5 5 5 5 5 5 5 6 8 9 11 11 12 13 12 13 14 14 15 16 18 17 17 15 16 16 17 18 18 18 16 17 18 20 17 20 18 23 25 24 23 23 26
6 5 5 5 5 5 5 5 5 5 5 5 7 8 10 10 13 13 11 12 14 15 15 15 15 15 17 15 14 16 17 19 17 17 14 16 16 17 19 19 22 23 23 22 21 23 25
5 5 5 5 5 5 5 5 5 4 5 5 6 7 10 10 12 12 13 13 14 15 14 15 15 15 15 15 15 16 15 17 19 20 18 18 18 16 18 17 18 21 20 22 25 23 24
6 5 5 5 5 5 5 5 5 5 5 5 5 5 7 9 7 6 7 8 9 16 16 15 16 16 16 16 16 17 14 13 18 18 18 18 19 20 20 22 23 21 24 23 23 24 21

GFSGBSN_925_temp_057.txt.gz
Temp
8 8 9 9 9 9 9 8 9 9 9 8 9 9 10 11 12 12 12 12 12 11 11 11 12 13 15 22 25 23 22 22 21 22 25 27 27 28 28 29 29 28 29 29 29 29 28
7 8 8 8 9 9 9 9 9 9 8 8 8 8 9 9 10 11 11 12 12 11 11 11 12 13 16 21 24 23 22 20 23 23 25 27 28 29 28 28 28 29 29 29 29 29 29
7 7 8 8 8 8 9 9 9 8 8 8 8 8 8 9 9 10 11 11 11 11 11 11 12 13 17 21 23 23 22 23 24 25 27 27 27 27 29 28 29 28 28 29 28 29 29
7 7 7 8 8 8 8 8 9 9 8 8 8 8 8 8 9 10 10 10 11 11 11 12 13 14 18 23 23 23 23 24 24 25 26 27 26 27 27 29 28 28 28 27 18 23 29
7 7 7 7 8 8 8 8 8 9 8 8 8 8 8 8 9 10 10 11 11 11 11 11 13 16 21 20 21 23 23 25 25 25 25 25 26 27 28 27 27 28 27 26 25 28 28
7 7 7 7 7 8 8 8 8 8 9 8 8 8 8 7 8 9 10 11 12 11 11 13 15 17 21 24 25 24 24 24 26 26 25 25 26 26 27 28 26 28 27 28 26 23 28
7 7 7 7 7 7 7 7 8 8 7 8 8 8 8 8 8 9 10 15 17 16 16 20 23 22 24 25 23 25 25 25 26 26 24 26 26 26 28 29 28 28 28 28 25 24 27
6 6 6 7 7 7 7 7 7 8 8 7 8 8 8 8 8 9 9 17 19 16 18 21 21 22 23 23 24 26 25 25 25 25 26 27 25 28 28 27 26 27 27 28 29 29 28
6 6 6 6 6 6 7 7 7 7 7 8 7 8 8 8 8 8 12 16 16 16 18 21 23 23 23 23 23 26 26 26 25 25 26 26 27 28 26 26 26 27 27 28 28 28 28
6 6 6 6 6 6 6 7 7 7 7 7 8 7 7 7 8 12 15 16 16 15 18 23 22 23 23 24 22 25 26 26 26 26 27 26 28 26 26 26 27 26 28 27 27 27 26
6 6 6 6 6 6 6 6 7 7 7 8 7 8 7 7 10 15 17 16 15 15 19 25 24 23 24 23 26 25 27 26 26 26 27 26 27 26 26 26 27 26 27 27 27 27 27
6 6 6 6 6 6 6 6 6 6 7 7 7 7 7 7 8 9 13 15 15 18 19 24 23 21 22 22 26 27 26 27 28 26 27 27 28 28 27 27 27 28 26 26 27 27 25
6 6 6 6 6 6 6 6 6 6 6 7 7 7 7 9 9 11 10 13 17 18 24 24 23 23 23 23 24 25 25 24 25 24 24 26 26 27 27 26 26 26 26 24 23 24 24
6 6 6 6 6 6 6 6 6 6 6 7 7 6 7 8 10 10 8 12 17 21 22 24 24 23 23 24 24 24 24 24 25 26 25 24 24 26 27 26 27 26 26 24 22 23 25
6 6 6 6 6 6 6 6 6 6 6 7 6 7 6 8 9 9 8 11 18 21 24 23 24 23 23 24 24 24 24 24 25 26 25 25 25 28 28 27 27 26 25 27 25 24 23
6 6 6 6 6 6 6 6 6 6 6 7 7 8 8 7 8 9 8 10 17 21 23 24 23 24 24 24 24 24 24 26 25 27 28 27 25 27 27 27 27 26 27 25 25 21 22
6 6 6 6 6 6 6 6 6 6 6 7 6 7 10 8 8 8 9 13 17 21 23 23 23 23 24 24 24 24 25 26 26 26 27 27 26 25 25 25 26 25 25 26 26 25 22
6 6 6 6 6 6 6 6 6 6 6 6 6 7 10 8 7 8 10 14 15 19 20 23 23 23 24 24 24 24 24 25 25 26 25 26 26 24 24 27 28 27 26 26 24 24 24
6 5 5 5 6 6 6 6 6 6 6 6 6 7 9 8 8 9 12 14 17 17 19 21 21 22 24 23 23 24 24 25 25 25 25 26 25 23 24 25 26 25 27 27 26 26 22
5 5 5 5 6 6 6 6 6 6 6 6 5 6 7 8 11 12 13 14 16 16 18 20 21 22 22 22 23 23 24 23 24 24 21 24 25 24 24 25 26 25 26 26 26 24 24
4 5 5 5 5 5 6 6 6 6 6 6 5 8 8 7 8 12 14 15 16 16 17 18 19 21 22 21 22 22 23 22 21 19 22 24 23 25 25 26 27 27 26 26 26 26 24
4 5 5 4 5 5 5 5 5 6 6 6 4 11 11 12 10 12 13 14 16 17 18 17 17 19 22 22 22 21 22 21 21 22 22 25 23 24 24 26 26 26 27 27 27 27 26
5 5 5 5 4 5 5 5 5 5 6 6 4 12 13 12 10 11 13 14 15 17 18 20 19 19 20 21 21 21 19 19 19 20 22 23 23 23 22 25 25 23 25 26 27 27 27
5 5 5 5 5 5 5 5 5 5 5 5 6 13 11 12 10 13 14 15 16 17 17 19 20 19 20 21 20 20 18 19 18 20 21 22 22 23 21 18 19 24 27 27 26 27 27
5 5 5 5 5 5 5 5 5 5 6 5 7 12 12 11 13 13 14 15 16 16 16 18 20 21 19 19 16 17 17 15 17 18 20 21 21 20 20 21 23 25 25 25 25 26 28
6 5 5 5 5 5 5 5 5 5 5 4 9 11 12 12 13 15 14 15 15 15 16 17 20 20 19 16 16 16 18 19 18 17 19 20 21 20 20 20 20 23 26 27 27 24 27
5 5 4 4 5 5 5 5 5 5 5 4 7 10 12 12 14 14 12 14 16 16 16 17 18 17 18 15 14 17 18 21 19 17 16 16 18 18 19 20 22 26 26 28 22 23 28
5 5 5 5 5 5 5 5 5 5 5 5 7 10 11 12 13 14 15 13 15 17 15 16 17 16 15 14 16 17 18 20 19 20 19 17 17 17 19 19 19 24 25 24 25 27 27
5 5 5 5 5 5 5 5 5 5 4 6 8 9 10 10 10 10 9 9 11 16 17 17 16 17 18 17 18 18 17 16 19 19 22 19 20 20 21 22 24 23 24 26 27 27 27

GFSGBSN_925_temp_060.txt.gz
Temp
8 8 8 8 9 9 9 9 9 9 9 9 8 8 9 9 10 11 11 11 11 12 11 11 11 12 14 21 24 24 23 23 22 22 24 26 27 27 27 29 30 29 29 30 30 30 30
7 7 8 8 8 8 8 9 9 9 9 8 8 8 8 8 9 10 10 10 11 11 11 11 11 12 15 19 25 25 23 21 23 23 25 27 27 29 28 28 28 29 29 29 27 27 27
7 7 8 8 8 8 8 8 8 9 9 9 8 8 8 8 8 9 10 10 10 11 11 11 11 12 16 19 23 25 24 24 24 25 26 27 28 28 28 28 29 29 28 28 24 25 24
7 7 7 7 8 8 8 8 8 8 8 9 9 8 8 8 8 8 9 10 11 11 11 11 11 12 17 21 23 24 25 25 25 26 26 27 28 27 27 28 28 28 28 27 23 25 27
7 7 7 7 7 8 8 8 8 8 8 8 9 8 8 8 8 8 9 9 11 12 11 11 12 15 19 22 22 23 25 25 26 26 26 27 27 26 27 26 26 27 26 28 25 25 25
7 7 7 7 7 7 8 8 8 8 8 8 8 8 8 8 8 8 9 10 14 11 13 13 14 18 20 23 26 24 25 25 27 26 26 26 25 25 26 26 25 27 28 28 27 25 26
7 7 7 7 7 7 7 7 8 8 8 8 8 8 8 9 8 8 8 12 16 15 15 19 21 20 24 25 25 25 25 25 27 26 24 25 24 24 26 28 28 28 27 27 27 28 27
6 6 6 6 7 7 7 7 7 7 8 7 7 8 8 8 8 8 8 13 20 18 17 21 21 21 22 24 23 26 26 25 25 24 25 25 24 26 28 29 28 27 27 27 29 28 27
6 6 6 6 6 6 6 7 7 7 7 8 7 8 8 8 8 8 9 13 17 17 17 20 22 23 23 24 23 25 27 25 25 24 25 24 26 28 28 27 26 27 27 27 27 26 28
6 6 6 6 6 6 6 6 7 7 7 7 7 7 8 7 8 11 12 14 14 17 16 20 23 24 24 24 23 25 27 26 25 24 25 26 27 28 27 26 27 26 28 28 28 26 26
6 6 6 6 6 6 6 6 6 7 7 7 7 7 7 7 11 12 14 13 17 16 16 26 26 25 26 24 25 24 26 26 24 25 26 25 27 27 26 27 28 27 28 27 27 26 27
6 6 6 6 6 6 6 6 6 6 7 7 7 7 7 7 8 10 12 11 15 15 17 24 24 23 23 24 24 26 25 27 27 26 27 27 29 28 28 28 28 28 27 27 27 26 24
6 6 6 6 6 6 6 6 6 6 6 7 7 7 7 7 9 12 11 11 15 16 23 24 23 23 23 23 23 24 24 24 24 23 24 26 26 28 28 27 27 26 26 23 21 22 23
6 6 6 6 6 6 6 6 6 6 6 7 7 7 7 7 9 10 10 10 14 19 20 26 26 24 23 24 23 23 25 24 25 25 25 24 23 26 27 27 26 26 26 24 22 19 22
6 6 6 6 6 6 6 6 6 6 6 7 7 6 7 8 8 9 8 10 15 19 23 22 24 24 23 24 25 23 24 24 25 26 24 24 24 27 27 27 27 26 25 27 25 21 20
6 6 6 6 6 6 6 6 6 6 7 7 6 8 8 9 8 8 8 10 15 19 22 23 22 24 24 24 24 24 24 26 26 26 26 25 24 26 28 28 27 26 28 25 25 21 21
5 6 6 6 6 6 6 6 6 6 7 7 6 7 9 9 8 8 8 11 14 18 20 20 20 22 24 24 25 24 24 26 26 26 26 26 25 26 28 26 26 26 25 25 26 25 23
5 6 6 6 6 6 6 6 6 6 7 6 6 7 9 8 7 8 9 12 14 17 19 19 20 21 22 24 24 23 25 26 27 27 24 25 25 23 25 27 27 27 26 26 24 23 24
5 5 6 6 6 6 6 6 6 6 6 6 6 6 9 9 7 8 10 12 14 15 17 20 19 20 21 22 21 24 24 27 26 26 25 25 24 22 24 26 27 26 26 26 26 26 24
5 5 5 5 6 6 6 7 6 6 6 6 6 6 7 8 12 11 11 12 13 15 16 19 20 21 21 20 21 22 23 26 25 25 21 23 24 23 22 22 25 25 26 26 25 22 23
5 5 5 5 5 5 5 6 7 6 6 6 5 6 9 8 8 12 13 14 13 14 16 18 19 20 20 17 17 19 23 22 24 20 24 23 22 24 24 25 26 26 26 26 26 24 21
4 4 5 5 5 5 5 5 6 6 6 6 4 7 11 12 10 11 12 13 14 15 16 16 17 19 20 17 18 18 19 19 20 23 23 23 22 23 22 25 25 24 26 27 26 27 27
4 4 4 4 4 5 5 5 5 6 6 7 4 9 11 11 11 10 11 13 14 16 17 18 18 18 19 19 19 12 14 16 23 22 21 22 22 22 20 23 24 22 25 26 27 27 27
4 4 5 5 5 5 5 5 5 5 6 5 4 10 8 10 11 11 12 13 14 15 16 18 19 18 20 22 15 15 13 16 19 21 21 20 22 21 19 17 19 24 26 27 26 27 28
5 5 5 5 5 5 5 5 5 5 5 6 4 9 9 9 13 12 13 13 14 16 16 17 19 20 21 17 15 13 12 13 17 19 20 20 20 15 18 19 22 24 25 25 25 25 27
5 5 5 5 5 5 5 5 5 5 5 5 5 8 10 10 11 14 13 14 14 14 15 17 19 20 19 17 13 12 13 17 14 18 19 17 18 17 16 17 18 22 25 27 26 22 27
6 6 5 5 5 5 5 5 5 5 5 4 4 6 9 10 12 14 13 13 15 15 15 16 17 16 15 15 14 15 16 19 18 17 15 14 14 14 16 16 20 24 25 25 22 22 26
6 5 5 5 6 5 5 5 5 5 5 5 5 6 7 9 12 11 11 12 14 15 14 16 16 15 10 13 15 16 16 18 19 20 17 15 14 14 16 15 16 24 24 23 24 24 26
5 6 5 5 5 5 5 5 5 4 4 5 5 6 6 9 9 11 11 10 13 13 14 16 16 13 15 14 16 17 16 16 19 17 22 17 18 17 17 19 22 21 23 23 23 23 24

GFSGBSN_925_temp_063.txt.gz
Temp
8 8 8 8 8 8 8 9 9 9 9 8 8 8 8 8 8 9 9 10 10 11 11 11 11 11 13 15 19 23 24 23 23 23 22 22 22 23 23 24 24 25 26 27 27 26 26
7 7 8 8 8 8 8 8 9 9 9 9 9 8 8 8 8 8 8 9 10 10 11 11 11 11 12 13 21 22 23 23 22 22 23 22 23 24 24 24 24 25 25 25 25 26 25
8 7 8 8 8 8 8 8 8 9 8 9 9 9 8 8 8 8 8 8 10 10 10 11 11 10 12 14 22 22 22 22 23 23 22 24 25 24 24 23 25 25 24 24 24 25 26
7 7 7 7 7 8 8 8 8 8 8 8 8 9 8 8 8 8 8 8 9 10 10 11 11 10 12 18 21 20 23 22 24 24 24 25 26 24 25 24 24 23 23 22 24 24 25
7 7 7 8 7 8 7 8 8 8 8 8 8 9 9 8 9 8 8 8 10 12 11 12 10 10 14 20 19 22 22 23 24 24 25 26 26 24 24 22 20 22 21 22 23 23 24
7 7 7 7 7 7 7 7 7 8 8 8 8 8 8 8 8 8 8 8 15 12 11 11 12 13 16 20 23 23 23 23 24 24 24 23 22 21 20 19 19 21 22 24 22 23 23
7 6 7 7 7 7 7 7 7 7 7 8 8 7 8 8 8 9 8 9 13 11 12 14 15 16 20 23 23 24 24 24 24 23 21 21 20 20 20 21 23 23 24 23 24 24 23
6 6 6 6 6 6 7 7 7 7 7 7 7 7 8 8 8 9 8 8 13 13 13 17 17 18 19 20 20 22 25 21 21 21 21 21 20 22 24 24 24 25 24 23 24 25 25
6 6 6 6 6 6 6 6 7 7 7 7 7 7 7 8 7 8 8 9 14 13 12 16 18 18 20 21 19 20 23 22 21 21 21 21 22 24 24 24 24 25 24 23 24 25 25
6 6 6 6 6 7 7 7 7 7 7 7 7 7 7 7 8 9 9 12 13 13 11 16 19 19 21 21 20 22 23 23 22 21 22 21 23 24 24 24 25 23 25 26 25 24 21
6 6 6 6 6 7 7 6 7 7 7 7 7 7 7 7 9 8 11 11 12 14 11 20 21 24 23 21 22 22 23 23 22 22 22 22 23 23 23 25 25 24 25 26 25 22 22
5 6 6 6 6 6 6 7 6 7 7 7 7 7 7 7 7 9 10 11 12 13 12 20 22 22 21 21 22 23 22 22 23 22 23 23 24 24 24 26 25 26 25 25 24 22 19
5 6 6 6 6 6 6 6 7 6 7 6 7 7 6 7 7 9 9 10 11 11 20 21 21 22 21 21 21 22 21 21 20 20 20 22 23 24 26 24 25 24 23 19 17 18 17
5 6 6 6 6 6 6 6 7 7 7 7 6 7 6 6 8 8 8 10 11 16 17 22 22 22 20 21 21 22 21 20 21 21 20 20 20 23 25 25 24 23 22 18 19 17 18
5 5 5 6 6 6 6 6 6 7 7 7 7 6 6 7 8 8 8 10 12 15 19 18 20 19 20 22 21 21 20 21 22 22 20 20 21 25 25 26 25 23 22 23 21 20 17
5 5 5 6 6 6 6 6 6 6 7 7 6 6 6 7 7 8 8 9 11 15 17 18 18 20 19 21 21 20 20 22 22 23 23 22 20 24 25 25 24 24 24 22 20 19 18
5 5 5 6 6 6 6 6 6 6 7 7 6 6 7 8 8 7 8 9 12 14 16 16 16 17 18 18 19 19 21 23 23 23 23 22 21 21 24 23 23 22 23 22 21 21 18
4 5 5 5 6 6 6 6 6 6 7 7 6 6 7 8 7 8 8 9 12 14 14 14 15 16 16 17 18 19 18 19 23 24 22 22 21 20 22 24 26 24 23 22 18 20 20
4 4 5 5 5 5 6 6 6 6 6 6 6 6 8 8 7 7 9 10 10 11 13 13 15 16 17 17 16 19 20 20 21 23 23 22 22 19 20 22 24 23 23 23 23 20 19
4 4 5 5 5 5 5 6 6 6 6 6 5 6 6 7 8 8 9 9 10 12 12 14 14 14 14 15 18 18 18 19 17 22 20 22 20 21 19 20 23 22 23 23 22 18 19
4 4 5 5 5 5 6 6 7 6 6 6 4 6 7 7 7 8 9 11 10 10 12 13 12 13 14 15 16 16 17 16 17 19 21 22 21 21 21 23 23 23 23 23 23 22 20
4 4 5 5 5 5 5 6 5 6 6 6 3 6 7 9 9 8 9 9 10 12 13 13 12 14 14 15 16 17 15 16 15 16 15 21 19 20 20 22 22 23 24 22 23 23 22
4 4 4 4 5 5 5 5 5 5 6 7 6 6 8 9 9 7 8 9 11 11 13 13 14 13 13 15 16 14 14 14 14 14 13 15 17 18 18 21 22 18 20 22 23 24 22
4 4 4 4 4 4 5 5 5 5 5 6 6 8 7 8 8 8 10 10 10 12 12 13 15 14 15 15 15 14 13 14 14 14 13 14 18 16 14 17 17 21 23 23 23 24 24
4 4 4 4 4 4 4 5 5 5 5 5 5 7 8 7 9 10 9 10 11 12 12 13 14 15 16 15 14 12 11 12 13 14 13 13 16 13 15 17 19 21 23 23 22 22 24
4 4 4 4 5 5 5 5 5 5 5 5 5 5 8 8 9 11 11 11 10 10 11 12 14 14 15 13 12 13 11 13 12 14 13 12 14 12 12 15 16 19 21 23 23 20 23
4 4 4 5 5 5 5 5 5 5 5 5 5 4 6 6 10 11 11 11 12 12 11 12 13 13 14 11 10 9 12 13 12 12 11 11 12 12 12 13 14 19 22 23 20 18 23
5 6 6 6 6 5 5 5 5 5 5 5 4 4 5 6 9 11 11 10 12 12 11 11 12 12 9 9 11 9 9 13 13 15 14 13 12 11 12 12 13 19 20 20 20 20 21
6 6 5 5 5 5 5 5 5 5 5 5 4 5 5 6 8 11 11 11 10 12 11 12 13 13 10 10 10 10 9 10 13 14 17 13 13 13 14 13 16 19 19 19 18 20 20

GFSGBSN_925_temp_066.txt.gz
Temp
8 8 8 8 8 8 8 8 9 9 9 9 9 9 8 8 8 7 7 8 8 9 10 10 10 10 11 13 16 23 22 23 22 22 22 21 22 22 21 22 22 22 23 24 24 25 21
7 8 7 8 8 8 8 7 8 8 9 9 9 9 9 9 8 8 7 7 8 8 9 10 10 9 10 12 20 21 20 22 21 21 21 21 21 22 21 22 22 23 22 23 23 24 24
7 7 7 7 7 8 8 8 8 8 8 8 8 8 9 9 9 9 8 8 8 8 9 9 10 9 11 12 21 20 19 20 21 21 20 22 23 22 22 21 23 23 22 22 23 24 24
7 7 7 7 7 7 7 7 8 8 8 8 8 8 8 9 9 9 9 8 9 9 10 10 9 9 11 17 19 18 20 20 21 21 22 23 23 21 21 22 21 22 21 21 22 24 23
7 7 7 7 7 7 7 7 7 7 8 8 8 8 8 8 8 8 9 9 10 12 11 11 9 9 11 17 17 21 20 19 22 22 22 24 22 21 22 21 18 19 19 20 22 22 23
7 7 7 7 7 7 7 7 7 7 7 8 8 8 8 8 8 8 9 9 14 12 11 10 11 11 13 18 21 22 22 21 21 22 21 21 20 20 18 17 18 18 20 21 21 22 22
6 6 6 6 7 7 7 7 7 7 7 7 7 7 7 8 8 8 8 9 12 12 11 13 14 14 17 20 21 22 22 21 21 21 19 21 19 19 18 18 20 21 20 20 21 22 22
6 6 6 6 6 6 7 7 7 7 7 7 7 7 7 7 8 8 8 8 10 9 9 13 14 15 16 18 18 19 22 20 19 19 19 20 19 21 20 20 20 21 21 21 22 25 22
6 6 6 6 6 6 6 7 7 7 7 7 7 7 7 7 7 8 8 8 11 10 9 14 16 16 17 17 16 18 20 20 20 19 19 19 21 22 21 21 21 21 21 21 22 23 23
5 5 5 5 6 6 6 7 7 7 7 7 7 7 7 7 7 8 8 10 10 10 10 14 16 17 18 19 17 20 21 21 20 20 19 19 22 21 21 21 21 20 23 23 23 22 20
5 5 5 5 6 6 6 7 7 7 7 7 7 7 7 7 8 7 9 10 10 10 11 18 18 20 19 18 19 19 21 19 19 21 20 19 20 20 21 22 22 22 23 23 24 22 21
5 5 5 5 6 6 6 7 7 7 7 7 7 7 7 6 6 7 8 9 10 11 11 16 20 18 18 19 21 21 19 21 21 20 21 21 22 21 22 23 22 23 24 23 21 20 18
4 5 5 5 6 6 6 6 7 7 7 7 7 7 6 7 6 8 8 9 11 11 17 19 20 20 19 18 19 21 19 18 18 18 19 21 21 22 22 22 22 22 21 18 18 18 17
4 4 5 5 6 6 6 6 7 7 7 7 7 7 6 7 7 7 7 9 10 14 16 18 19 19 19 19 19 20 19 17 19 19 19 19 18 21 22 22 22 21 21 17 19 16 18
4 4 5 5 5 6 6 6 6 7 7 7 7 6 6 7 7 7 7 9 11 14 17 17 18 17 18 20 20 19 18 18 19 19 18 18 19 22 23 23 23 22 20 22 19 19 16
4 4 4 5 5 6 6 6 6 6 7 7 6 6 6 7 7 6 6 9 11 14 15 15 15 18 17 17 17 16 18 20 20 20 20 20 19 22 23 23 23 23 22 20 18 19 18
4 4 4 5 5 5 5 6 6 6 7 7 6 6 7 6 6 6 7 9 11 13 13 13 14 14 15 16 17 18 16 18 19 21 20 21 19 20 21 21 21 21 20 21 20 18 17
4 4 4 5 5 5 6 6 6 6 7 6 6 6 6 6 5 6 7 9 11 11 13 13 13 13 14 15 15 16 18 19 19 20 19 20 19 18 20 22 23 23 22 20 18 19 17
4 4 4 4 4 5 5 5 6 6 6 6 6 6 6 7 6 6 8 9 9 10 11 12 13 14 14 14 13 15 17 18 18 17 18 19 18 17 19 20 22 21 21 22 20 18 18
4 3 4 4 4 5 5 5 5 5 6 6 4 6 6 6 7 7 8 8 9 11 10 10 11 13 12 12 13 13 15 17 16 17 15 17 18 19 18 20 20 21 21 22 22 15 18
3 3 3 4 4 5 5 5 5 5 6 6 4 5 7 6 6 7 8 9 9 9 11 11 10 10 11 11 13 13 15 15 17 15 16 16 17 19 20 21 21 21 21 22 21 20 18
3 3 3 4 4 4 5 5 5 5 6 6 3 6 6 6 8 7 7 8 9 10 10 11 10 12 12 11 12 12 14 14 15 15 15 14 15 18 18 20 22 22 22 21 21 21 20
3 3 4 4 4 5 5 5 5 6 5 6 5 5 8 8 7 7 7 8 9 9 10 11 11 11 11 12 12 12 13 13 14 14 13 13 13 13 16 18 20 18 19 20 21 21 21
3 4 4 4 4 5 5 5 5 5 5 5 6 7 6 7 8 8 9 9 9 10 9 11 12 11 12 13 13 12 12 13 13 13 14 13 12 12 12 15 16 19 21 21 20 22 22
4 4 4 4 4 4 4 5 5 5 5 4 5 6 6 7 7 9 9 9 9 10 10 10 11 12 12 13 11 12 11 12 12 13 13 14 12 11 12 15 18 18 20 20 21 20 21
4 4 4 4 4 4 4 4 4 5 4 4 4 5 6 7 7 9 9 9 8 8 8 10 11 12 12 10 9 10 10 12 13 13 13 11 11 11 11 13 15 18 19 22 22 17 21
4 4 4 4 4 4 4 4 4 4 4 4 4 4 4 4 7 9 9 9 10 9 8 9 10 10 10 7 7 8 11 13 12 11 10 10 9 11 11 12 13 15 18 21 19 19 21
5 4 4 4 4 4 4 4 5 5 4 4 5 4 4 3 5 9 10 9 10 10 9 9 10 9 8 8 8 8 7 11 12 13 12 11 11 11 11 12 12 18 19 18 16 19 19
6 5 6 6 5 5 5 4 5 5 5 4 5 4 5 5 5 7 10 13 12 12 10 9 10 11 10 9 7 8 8 6 10 12 14 12 13 12 12 13 15 17 17 15 16 16 16

GFSGBSN_925_temp_069.txt.gz
Temp
8 8 8 8 8 8 7 7 8 8 9 8 9 9 9 9 9 8 8 8 8 8 8 9 10 9 10 12 14 22 20 21 21 21 21 20 20 21 21 21 21 21 22 22 22 21 21
7 7 7 7 8 8 8 8 8 8 8 8 8 8 9 9 9 9 9 9 9 8 8 9 10 8 10 11 19 19 19 19 21 20 20 20 20 20 21 21 21 22 21 21 21 22 19
7 7 7 7 7 7 8 8 8 7 8 8 8 8 8 8 9 9 9 9 9 9 9 9 9 8 11 11 19 18 18 18 19 20 20 21 21 22 20 21 21 22 21 20 21 21 22
7 7 7 7 7 7 7 7 8 8 8 7 8 8 8 8 8 9 9 9 9 9 9 9 9 9 11 17 17 16 19 19 19 19 19 21 21 20 20 21 20 21 20 20 22 23 22
7 7 7 7 7 7 7 7 7 7 7 8 7 8 8 8 8 8 9 9 10 10 9 9 9 10 11 16 15 20 18 17 20 20 20 20 21 19 20 19 18 18 18 19 20 21 21
6 6 7 7 7 7 7 7 7 7 7 7 7 7 8 8 8 8 8 9 12 11 9 9 10 10 12 17 19 20 20 18 19 20 20 19 18 18 16 17 17 17 18 19 19 20 21
6 6 6 6 6 6 6 7 7 7 7 7 7 7 7 7 8 8 8 9 9 10 10 11 12 13 15 18 19 20 19 18 20 20 18 18 17 16 18 18 19 20 20 19 19 20 21
6 6 6 6 6 6 6 6 7 7 7 7 7 7 7 7 8 8 7 7 8 8 8 11 11 13 14 16 15 17 20 18 18 17 18 18 18 19 19 19 19 19 18 18 19 21 20
6 6 6 6 6 6 6 6 7 7 7 7 7 7 7 7 7 8 7 8 9 9 8 11 12 13 15 15 15 16 18 19 18 17 17 18 19 20 19 19 19 18 18 18 19 21 20
5 6 5 5 5 5 6 6 6 7 7 7 7 7 7 7 7 7 7 8 9 8 8 12 13 15 16 16 14 18 19 19 18 18 18 17 20 20 19 19 19 18 19 20 20 19 19
5 5 5 5 5 5 6 7 6 7 7 7 7 7 7 7 7 7 8 8 9 9 11 17 17 18 17 16 18 18 19 19 18 18 18 18 19 19 19 20 20 20 20 20 20 20 20
5 5 5 5 5 5 6 7 7 7 7 7 7 7 7 6 6 6 7 8 9 10 10 15 18 16 16 17 18 19 18 20 20 19 19 19 20 19 20 21 20 21 21 21 19 18 18
5 5 4 4 4 5 5 6 6 7 7 7 7 7 7 6 6 7 7 8 10 10 15 17 18 17 17 17 17 19 17 17 18 17 17 19 19 21 22 20 20 20 20 17 16 17 18
4 4 4 4 4 5 5 6 6 6 7 7 7 7 7 6 7 7 7 8 10 13 13 16 17 17 18 17 18 19 17 16 17 19 17 17 17 20 20 20 20 19 19 16 18 16 18
4 4 4 4 4 4 5 5 6 6 7 7 7 6 6 6 6 6 5 8 11 12 14 14 16 16 17 19 18 18 17 16 18 17 18 16 17 21 21 21 21 20 18 21 18 17 16
4 4 4 4 4 4 5 5 6 6 7 7 6 6 6 6 6 6 5 8 12 13 13 13 13 14 14 15 16 16 17 18 19 19 19 19 18 20 21 21 20 20 20 19 16 17 17
3 3 4 4 4 4 4 5 5 6 6 6 6 6 7 6 6 5 5 7 11 12 12 11 12 13 13 13 14 16 16 18 18 18 19 19 18 18 21 19 19 19 20 20 19 16 17
3 3 3 3 4 4 5 5 5 6 6 6 6 6 5 6 5 4 5 8 11 11 11 11 12 12 12 13 14 15 16 17 17 17 18 18 17 17 19 20 21 21 20 19 16 18 16
3 3 3 3 4 4 4 5 5 5 5 6 6 5 5 6 6 5 7 8 9 10 10 11 11 11 13 14 13 14 15 16 16 17 17 17 16 16 17 18 20 19 20 20 18 16 18
3 3 3 3 4 4 4 4 5 5 5 6 3 6 5 6 5 7 7 7 8 9 9 9 10 10 11 11 12 12 12 15 15 15 14 15 16 15 15 17 19 19 20 20 20 16 17
3 3 3 3 3 4 4 4 5 5 5 5 3 5 6 6 6 7 7 8 8 8 10 10 9 9 9 9 10 11 12 13 16 15 16 14 14 15 15 17 19 20 20 20 20 20 18
3 3 3 3 3 3 3 4 4 5 5 5 3 5 6 6 7 7 7 7 8 9 10 9 9 10 10 9 10 10 11 12 13 15 15 14 14 12 14 17 18 19 20 20 19 20 20
3 3 3 3 3 3 3 4 4 4 4 5 5 5 7 7 6 6 7 8 8 9 10 11 10 9 9 10 10 11 11 12 12 14 13 13 12 12 12 14 15 15 18 20 21 20 20
3 3 3 3 3 3 4 4 4 4 4 5 5 6 6 7 7 7 8 8 8 9 8 10 10 9 10 11 10 11 10 11 11 12 13 11 11 11 12 12 14 16 18 20 19 21 20
3 3 3 3 4 4 4 4 4 4 4 5 5 6 7 7 7 8 9 8 8 8 9 9 10 11 11 11 10 10 9 11 11 11 12 12 11 10 11 13 14 16 18 19 19 19 20
4 4 4 4 4 4 4 4 4 5 5 5 4 4 6 7 7 9 9 8 7 7 8 9 10 10 12 9 8 9 8 11 12 13 13 12 11 11 11 12 12 16 16 18 18 17 19
4 4 4 4 4 4 5 4 5 5 5 4 4 4 4 5 7 9 8 8 9 8 7 8 9 8 8 6 7 7 9 12 11 11 11 10 9 11 11 12 11 14 16 17 15 15 19
4 4 4 4 4 4 4 4 4 5 5 4 4 4 4 3 5 7 9 9 9 9 7 8 9 8 6 7 7 7 5 9 11 11 10 10 10 9 11 11 11 15 14 14 14 15 16
5 5 5 5 4 4 4 4 4 4 5 4 4 4 4 4 5 5 7 8 11 11 10 8 10 9 8 7 6 6 6 5 9 9 13 11 11 10 10 12 14 15 13 13 13 14 16

GFSGBSN_925_temp_072.txt.gz
Temp
8 8 8 7 8 8 8 8 8 8 8 8 8 8 8 8 8 8 8 9 9 9 9 9 9 9 9 10 14 20 20 20 20 20 20 19 20 19 20 19 20 20 20 21 21 19 19
7 7 7 7 7 8 8 8 8 8 8 8 8 8 8 8 8 8 8 9 9 9 9 9 9 8 9 11 18 18 18 18 19 19 19 19 19 19 20 20 19 20 20 20 20 20 20
7 7 7 7 7 7 7 7 7 7 8 8 8 7 8 8 8 8 8 8 9 9 9 9 9 7 9 11 19 17 17 17 18 18 19 20 21 21 20 20 20 21 20 19 20 20 20
7 7 7 7 7 7 7 7 7 7 7 7 8 8 7 7 7 8 8 8 9 9 10 8 8 8 9 16 17 15 17 17 19 18 18 20 20 20 20 20 20 20 19 19 21 21 21
7 6 7 6 7 7 7 7 7 7 7 7 7 8 8 7 7 8 8 9 10 10 9 7 8 9 10 15 14 18 17 16 19 19 18 19 19 18 19 18 17 17 17 18 19 20 20
6 6 6 6 6 6 6 6 7 7 7 7 7 7 7 8 7 7 7 9 10 9 8 8 10 10 12 16 18 19 18 16 18 17 18 17 17 16 15 16 16 17 17 17 18 20 19
6 6 6 6 6 6 6 6 6 7 7 7 7 7 7 7 8 7 7 9 8 9 8 10 11 11 14 16 17 18 18 17 18 17 16 16 16 16 15 17 18 17 18 18 18 19 21
6 6 6 6 6 6 6 6 6 6 7 7 7 7 7 7 7 7 7 7 8 7 7 10 9 10 12 13 13 17 18 17 17 16 16 16 16 18 17 17 18 19 18 17 18 19 18
5 6 6 6 6 5 6 6 6 6 7 7 7 7 7 7 7 7 7 7 8 8 8 10 11 12 14 14 14 15 17 17 17 16 16 17 18 19 18 17 18 17 18 17 18 18 19
5 6 6 5 5 5 5 5 5 6 7 7 7 7 7 7 7 6 6 7 8 8 8 10 11 12 15 14 13 17 18 18 17 17 17 17 19 19 18 18 18 17 18 19 18 18 17
5 5 5 5 5 5 5 5 6 7 7 7 7 7 7 6 7 6 7 8 8 8 10 16 14 15 16 16 17 17 18 17 17 17 17 17 17 18 18 18 18 19 18 18 18 17 18
4 5 5 5 5 5 5 5 5 7 6 7 7 7 7 6 6 6 7 7 8 10 10 15 16 15 15 15 16 17 16 18 18 18 18 17 18 18 20 20 19 20 19 19 18 16 15
4 4 5 5 5 4 4 4 5 6 6 6 6 7 6 6 6 7 7 7 9 9 14 15 15 15 15 15 16 17 16 15 16 17 17 18 18 20 20 19 18 19 17 16 16 16 16
4 4 4 5 4 4 4 4 5 5 6 6 6 7 6 6 6 7 7 7 9 12 12 14 15 15 16 16 16 17 15 14 16 18 16 17 17 19 19 20 19 17 17 15 18 16 17
4 4 4 4 4 4 4 4 4 5 6 6 6 6 6 6 6 6 5 7 10 11 13 12 14 15 15 16 17 18 16 15 16 17 18 16 17 19 19 20 21 18 16 19 17 16 15
4 4 4 4 4 4 4 4 4 5 5 6 5 6 6 6 6 6 4 7 10 12 11 11 12 13 13 14 14 15 17 17 17 17 18 18 17 19 20 20 20 19 18 18 15 17 17
3 4 4 4 4 3 4 4 4 5 5 6 6 6 7 7 5 5 5 5 9 11 11 10 11 11 12 12 13 14 15 16 15 16 16 17 17 17 20 18 18 18 18 18 17 15 17
3 3 3 3 3 3 3 4 4 4 5 5 6 6 5 6 5 5 6 6 9 10 11 11 11 11 12 12 13 13 14 15 15 15 15 17 15 15 18 19 19 19 18 18 17 17 14
3 3 3 3 3 3 3 4 4 4 5 5 6 4 5 6 6 6 7 7 8 9 10 10 10 10 11 12 12 13 13 15 14 15 15 15 14 14 16 18 19 18 18 19 17 16 18
3 3 3 3 3 3 3 3 4 4 4 4 2 5 5 6 6 7 7 6 7 8 8 9 9 10 10 10 12 11 11 13 13 15 14 15 15 15 14 15 15 15 17 19 19 16 17
2 2 3 3 3 3 3 3 4 4 4 4 1 4 5 6 6 7 8 7 6 7 8 9 8 8 9 8 9 10 12 12 13 14 15 16 13 14 14 15 15 16 16 17 18 18 18
2 2 3 3 3 3 3 3 4 4 4 4 3 5 6 5 8 7 7 7 7 7 8 8 8 9 9 8 9 10 10 11 12 12 13 13 13 12 13 14 15 15 16 17 17 18 18
3 3 3 3 3 3 3 3 3 4 4 5 3 4 6 6 7 6 7 7 7 9 9 10 10 9 9 9 9 9 10 10 10 10 10 12 12 11 12 14 14 13 16 17 17 18 18
4 4 3 3 3 3 3 3 3 3 4 4 4 5 6 6 6 7 8 8 9 9 9 9 9 9 10 10 10 9 8 9 9 10 10 11 12 10 10 12 12 15 15 17 16 17 18
4 4 4 4 3 3 3 3 3 3 4 4 4 6 6 6 6 7 8 8 8 9 9 9 10 11 11 9 8 9 8 9 9 9 11 12 10 10 9 11 13 15 17 18 15 16 17
4 4 4 4 4 4 3 3 3 3 4 4 4 5 6 6 6 8 7 7 7 7 7 8 10 10 11 8 7 9 8 10 11 11 11 11 10 10 10 10 11 14 17 16 18 15 17
4 4 4 4 4 4 4 4 4 4 4 4 4 4 4 5 7 8 7 7 8 8 7 8 8 8 9 6 8 8 9 11 10 11 11 10 9 11 11 11 11 12 14 15 14 14 12
6 5 4 4 4 4 4 4 4 4 4 4 4 4 4 4 5 7 8 7 8 8 7 7 8 7 6 6 7 8 6 8 10 11 10 10 9 11 11 11 11 13 14 15 13 12 13
6 6 4 4 4 4 4 4 5 4 4 4 3 4 4 4 5 4 6 7 10 10 10 9 9 7 6 6 5 6 5 4 9 9 10 9 10 9 10 10 12 14 15 14 12 16 15

GFSGBSN_925_temp_075.txt.gz
Temp
7 7 8 7 8 8 8 8 8 8 8 8 8 8 8 8 8 8 8 9 9 9 9 9 9 9 11 12 15 19 20 19 19 19 20 20 20 20 21 20 20 20 22 21 22 22 21
7 7 8 8 8 8 7 7 8 8 8 8 8 8 8 8 8 8 8 9 8 8 8 9 8 8 9 13 18 18 18 18 19 19 19 19 21 20 21 21 21 22 21 22 21 22 21
7 7 7 7 7 8 8 7 7 7 7 7 7 7 7 8 8 8 8 8 9 9 9 9 7 7 9 13 18 17 18 17 17 18 19 19 20 21 21 21 20 21 21 21 22 23 22
7 7 7 7 7 7 7 7 7 7 7 7 7 7 7 7 7 7 7 8 8 9 8 9 7 7 9 16 16 17 16 17 18 17 17 19 20 20 21 20 20 21 20 21 21 21 20
6 6 6 7 7 7 7 6 6 6 7 7 7 7 7 7 7 8 8 8 10 9 9 8 7 8 11 14 14 17 16 15 16 17 18 18 19 19 19 20 20 19 21 19 21 21 21
6 6 6 6 6 6 6 6 6 6 7 7 7 7 7 7 7 7 7 9 9 9 8 7 8 9 13 16 17 17 16 16 17 16 18 18 18 18 17 20 20 20 19 19 21 21 21
6 6 6 6 6 6 6 6 6 6 6 7 7 7 7 7 7 7 7 8 9 10 8 11 11 12 14 14 16 17 17 16 17 17 18 17 18 18 19 19 20 20 19 21 20 20 21
6 6 6 6 6 6 6 6 6 6 6 6 7 7 7 7 7 7 7 7 8 7 7 10 9 10 11 12 13 16 17 17 17 18 17 17 17 19 18 18 20 20 20 20 21 20 20
5 5 5 6 6 5 5 5 5 6 6 6 7 7 7 7 7 7 7 7 7 7 8 10 11 10 12 13 13 15 17 17 17 17 17 19 19 19 19 18 19 19 20 20 20 20 21
5 5 5 5 5 5 5 5 5 5 6 6 6 7 7 6 7 6 6 7 8 7 8 11 11 11 13 14 12 16 18 19 17 17 17 18 20 18 19 19 19 19 19 20 20 20 20
5 5 5 5 5 5 5 5 4 5 5 5 6 7 7 6 6 6 8 8 8 7 11 15 14 15 15 15 16 15 17 17 18 17 18 18 18 18 18 19 19 20 19 20 20 20 19
4 4 5 5 5 5 5 5 5 4 5 5 6 6 6 6 6 6 7 7 7 9 10 14 16 15 14 15 16 16 16 17 18 18 17 18 18 19 20 19 20 20 20 19 18 19 18
4 4 5 5 5 5 5 5 4 4 5 5 6 6 6 6 6 7 7 7 8 9 13 14 14 15 14 15 15 16 15 15 17 16 16 17 19 19 20 19 19 20 19 19 18 18 19
4 4 4 4 5 5 5 5 4 4 5 5 5 6 6 6 6 7 7 7 8 12 12 14 14 14 14 16 16 17 15 15 16 17 18 17 17 19 20 20 19 19 19 19 19 19 20
4 4 4 4 4 5 5 4 4 4 4 5 5 5 5 6 6 6 5 5 10 11 12 11 13 14 14 15 15 16 15 15 16 17 18 17 18 19 19 21 21 18 18 20 18 17 18
3 4 4 4 4 5 4 4 4 4 4 5 4 5 6 6 6 5 5 6 9 12 11 11 11 12 12 13 14 15 16 15 15 17 18 18 18 19 19 20 20 20 20 19 18 18 19
3 3 3 3 3 4 4 4 4 4 4 4 4 6 7 7 6 5 6 6 8 10 11 10 11 11 12 12 13 14 14 15 15 15 17 18 18 18 19 19 19 19 19 19 20 18 20
3 3 3 3 3 3 3 3 3 3 4 4 5 5 5 6 6 5 6 7 9 10 11 11 11 11 11 12 13 14 14 15 14 16 15 15 16 16 18 19 19 20 20 20 19 18 17
3 3 3 3 3 3 3 3 3 4 3 4 5 5 5 6 6 6 5 6 8 9 10 10 10 10 11 11 12 12 13 14 13 14 15 16 15 16 17 18 18 18 18 19 18 17 19
3 2 3 3 3 3 3 3 3 3 3 3 3 4 5 6 6 8 6 7 7 8 9 9 9 10 10 11 11 11 12 13 13 14 14 16 15 13 15 15 15 15 16 17 18 17 19
2 2 2 2 3 3 3 3 3 3 4 3 2 4 5 5 5 7 8 8 7 7 8 9 9 9 10 9 10 11 12 12 13 13 14 15 14 15 14 16 16 16 16 16 16 17 17
3 3 2 3 3 3 3 3 3 3 4 3 3 4 5 5 7 6 6 6 7 8 8 8 8 9 9 9 10 11 11 11 11 12 12 12 13 14 13 16 17 15 16 17 17 18 18
3 3 3 3 3 3 3 3 3 3 3 3 4 3 5 6 7 6 6 8 7 8 8 10 10 9 9 9 10 10 10 10 11 10 10 11 12 12 13 14 15 14 16 17 18 18 18
4 4 3 3 3 3 3 3 3 3 3 3 3 4 5 5 6 7 7 8 8 8 8 9 9 9 10 10 9 10 9 9 9 10 10 11 11 11 11 11 13 17 17 17 17 18 19
4 4 4 4 4 4 4 3 3 3 3 3 4 4 5 5 6 6 8 7 9 9 9 9 10 10 10 9 7 8 9 9 10 9 10 11 11 11 12 12 15 17 18 17 17 18 15
4 4 4 4 4 4 4 3 3 3 3 3 3 4 5 5 6 8 8 8 7 7 7 8 9 9 8 6 7 9 9 11 11 11 10 10 11 10 10 12 13 16 16 16 17 16 15
4 5 5 5 4 4 4 4 3 3 3 3 3 3 5 5 6 8 8 7 8 8 7 7 7 6 7 7 7 9 9 11 11 12 10 10 10 10 11 11 13 14 15 16 15 16 15
6 6 5 5 5 4 4 4 3 3 3 3 3 4 4 3 5 8 8 8 8 7 7 7 6 6 6 7 8 8 8 10 11 12 11 12 11 11 11 11 12 14 15 16 16 15 14
5 5 6 5 5 4 4 4 4 4 4 3 4 4 4 4 5 5 7 8 9 9 8 7 9 7 8 8 7 8 8 7 10 11 10 12 12 13 13 14 14 14 15 15 15 15 15

GFSGBSN_925_temp_081.txt.gz
Temp
8 8 8 8 8 8 8 8 8 8 8 8 8 8 8 8 8 8 8 8 8 9 9 9 9 9 11 19 21 23 20 20 19 20 23 26 26 27 26 28 29 28 29 30 30 30 30
7 7 8 7 7 7 7 8 8 8 8 8 8 8 8 7 7 8 8 8 9 9 9 9 9 7 12 16 21 22 20 21 22 22 24 26 27 28 27 28 28 29 29 29 30 30 30
7 7 7 7 8 7 7 7 7 7 7 7 7 7 7 7 7 7 7 8 9 9 9 9 8 9 14 17 20 21 20 21 22 23 25 25 26 27 27 27 28 28 27 28 29 29 29
7 7 7 7 7 7 7 7 7 7 7 7 7 7 7 7 8 8 8 9 9 9 9 9 8 10 14 18 18 20 19 19 21 22 22 24 25 25 26 27 27 26 27 26 29 30 30
6 7 7 7 7 7 7 7 7 7 7 6 7 7 7 7 7 8 8 9 9 9 10 9 10 13 17 18 18 18 18 20 21 21 21 22 24 24 25 24 25 26 26 27 28 30 30
6 6 6 7 7 7 7 7 7 7 7 6 7 7 7 7 7 8 8 9 11 9 11 12 13 14 17 20 20 19 19 19 20 21 21 22 23 23 24 25 22 24 26 27 28 31 29
6 6 6 6 6 6 6 6 6 6 7 6 6 6 7 7 7 8 8 12 16 16 15 17 19 18 20 19 18 20 18 18 19 20 19 22 21 23 24 25 25 26 28 28 30 30 28
5 5 6 6 6 6 6 6 6 6 6 6 6 6 7 7 7 8 9 14 12 10 12 16 16 17 17 18 18 19 20 20 18 17 21 22 20 24 25 26 25 25 26 27 28 29 27
5 5 5 5 5 6 6 6 6 6 5 6 6 6 6 7 7 8 11 12 10 11 13 16 17 17 18 18 17 19 20 19 17 18 20 20 22 24 24 24 24 25 25 26 27 29 28
5 5 5 5 5 5 5 6 6 5 5 6 6 6 6 6 7 12 12 11 11 10 12 18 18 18 18 17 17 19 20 18 15 15 20 21 22 23 23 23 24 23 26 26 26 26 25
4 4 4 4 5 5 5 5 6 5 5 5 5 5 6 6 8 11 11 11 11 11 16 19 18 19 19 18 19 18 19 18 16 16 20 18 21 22 23 23 24 23 26 26 26 25 25
4 4 4 4 4 5 5 5 5 6 5 5 5 5 5 8 8 9 10 10 11 12 17 19 19 19 18 19 19 19 18 18 17 15 16 19 21 22 22 24 24 24 24 24 25 25 23
4 4 4 4 4 4 5 5 5 5 5 5 5 5 5 7 9 10 10 12 14 15 19 19 18 18 19 19 19 19 18 17 15 15 14 16 18 21 22 22 23 23 24 22 22 23 22
4 4 4 4 4 4 4 4 5 5 5 5 5 5 6 8 8 9 9 13 13 17 18 19 18 18 18 20 19 19 18 18 17 17 17 14 15 20 21 21 22 22 23 23 22 23 24
3 3 3 4 4 4 5 4 4 4 5 5 5 6 7 8 8 8 9 11 16 17 18 16 18 18 19 19 19 19 19 18 20 18 17 16 17 20 21 21 21 20 21 24 21 23 23
3 3 3 3 3 4 4 4 4 3 4 5 6 7 8 10 8 8 7 11 15 16 16 16 16 17 17 18 19 19 19 18 18 19 19 18 17 20 21 22 21 21 22 20 21 20 21
3 3 3 3 3 3 4 4 4 4 4 5 6 6 11 10 7 7 7 12 14 16 16 15 16 16 17 16 17 18 17 18 18 18 19 19 18 17 22 21 21 20 20 20 21 22 21
2 3 3 3 3 3 3 3 4 4 4 4 7 6 10 8 7 7 9 12 14 15 16 15 15 15 16 16 16 17 14 16 17 18 18 19 18 19 21 23 24 23 22 22 20 20 22
3 3 3 3 3 3 3 3 3 4 3 6 6 8 9 7 8 9 10 12 13 14 15 15 15 16 16 15 15 17 16 16 17 17 16 17 19 18 16 20 22 22 23 24 24 23 20
3 3 3 3 3 3 3 3 3 3 3 4 6 6 9 7 7 9 10 11 12 13 14 15 15 16 15 15 16 15 16 17 16 17 13 16 17 19 19 20 21 21 23 23 23 21 22
3 3 3 3 3 3 3 3 3 3 4 4 5 6 10 8 9 9 10 10 12 12 14 15 14 14 14 14 15 15 16 16 16 15 17 17 16 18 18 19 20 20 21 22 22 22 21
3 3 3 3 3 3 3 3 3 3 4 4 4 6 10 10 11 11 10 9 11 14 14 13 13 15 15 14 14 14 16 16 15 16 16 17 16 17 17 19 19 20 21 21 21 21 22
3 3 3 3 3 3 3 3 3 3 3 3 6 7 7 9 10 9 10 11 10 13 15 15 14 14 13 15 15 14 15 14 15 14 15 15 16 17 16 18 18 18 20 21 21 22 22
4 3 3 4 4 4 3 3 3 4 3 3 6 7 6 7 9 11 12 10 10 11 10 14 14 12 14 14 14 14 14 14 14 14 15 14 15 17 16 16 15 20 23 22 22 23 23
4 4 4 4 4 4 4 3 3 3 3 3 5 6 7 7 11 11 11 10 7 9 11 12 13 13 12 11 11 12 13 12 13 15 15 15 15 15 14 16 18 20 21 21 21 22 22
4 4 4 4 4 4 4 4 3 3 3 3 5 5 6 6 9 12 11 12 11 11 11 12 12 11 10 10 9 11 13 15 14 15 16 15 15 15 15 14 15 19 21 22 22 20 21
3 3 4 4 4 4 4 4 4 3 3 3 4 5 5 5 9 11 11 12 13 12 10 11 10 8 7 8 9 11 13 16 14 14 13 13 13 13 14 14 17 18 20 20 17 18 18
4 5 5 5 5 5 5 5 4 4 3 3 3 5 5 6 9 11 11 10 12 9 8 9 8 7 6 9 11 13 13 15 15 16 14 13 12 12 13 12 13 20 20 18 17 18 18
5 5 5 5 6 6 6 5 5 4 3 3 3 4 4 6 8 9 9 10 11 11 8 8 11 8 11 11 12 13 12 14 15 14 16 12 15 15 16 16 18 18 15 17 17 17 17

GFSGBSN_925_temp_087.txt.gz
Temp
7 7 7 7 7 7 7 7 8 8 8 8 8 7 7 7 7 7 7 8 8 8 9 9 8 7 9 12 15 20 19 20 21 20 20 20 20 20 20 22 23 23 24 26 27 27 27
7 7 7 7 7 8 7 7 7 8 8 7 7 7 7 7 7 7 8 8 8 9 9 9 8 7 8 10 18 19 19 19 20 22 21 21 21 22 22 23 23 24 25 25 26 26 26
7 7 7 7 7 7 7 7 7 7 7 7 7 7 7 7 7 7 8 8 9 9 9 9 8 7 9 10 18 19 19 19 20 20 21 23 23 22 22 22 24 24 23 25 25 25 25
6 7 7 7 7 7 7 7 7 7 7 7 7 7 7 7 7 7 8 9 9 9 9 9 7 8 9 15 17 17 18 19 20 21 21 22 23 21 21 22 23 22 23 22 24 25 26
6 6 6 6 6 6 7 7 7 7 7 7 7 7 7 7 7 7 8 9 9 10 10 10 7 8 11 17 16 20 19 19 20 21 22 22 21 20 20 19 19 21 19 21 23 25 25
6 6 6 6 6 6 6 6 7 6 6 7 7 7 6 6 7 8 8 9 12 10 11 10 10 10 13 17 21 21 20 21 19 20 19 19 19 17 17 18 18 19 20 20 21 24 26
5 6 6 6 6 6 6 6 6 6 6 6 6 6 6 6 7 7 7 7 11 11 13 13 13 14 17 19 19 19 21 20 20 18 16 18 16 15 16 18 20 21 21 21 22 25 25
5 5 5 5 5 6 5 6 6 6 6 6 6 6 6 6 7 7 7 7 12 11 9 12 13 14 16 17 16 18 19 18 18 16 17 16 16 17 19 20 20 19 18 18 22 24 24
5 4 5 5 5 5 5 5 6 6 6 6 6 6 6 6 7 8 9 10 12 12 8 11 15 15 16 17 16 17 17 17 17 16 17 16 18 19 19 19 18 16 18 18 21 23 24
5 5 5 5 4 5 5 5 5 5 6 6 6 6 6 6 7 7 9 11 11 12 9 14 17 19 19 19 17 19 19 17 18 17 17 14 15 16 16 16 17 16 19 21 19 17 16
4 4 4 4 4 4 4 4 5 5 5 5 5 5 6 6 5 7 10 10 11 12 10 18 18 19 20 18 19 19 20 18 16 16 14 15 15 14 14 16 15 16 18 18 16 17 18
4 4 4 4 4 4 4 4 5 5 5 5 5 5 5 6 6 7 8 9 10 9 10 18 18 18 18 18 19 18 18 19 18 17 15 15 16 15 14 15 15 16 14 16 16 16 15
4 4 3 4 4 4 4 4 4 4 5 5 5 5 5 5 6 8 8 8 9 10 19 18 18 19 19 19 19 18 17 15 14 13 13 15 16 16 17 14 15 14 14 15 15 15 15
4 4 4 4 3 3 3 4 4 4 4 5 5 5 5 5 6 6 7 8 9 15 18 20 19 19 18 19 19 19 16 14 14 15 13 13 13 16 17 15 15 16 14 15 16 15 17
3 3 3 3 3 3 3 4 3 4 4 4 4 5 4 6 6 6 7 7 11 15 17 17 18 17 17 19 19 19 17 17 16 15 13 14 15 17 17 16 17 14 14 17 14 16 15
3 3 3 3 3 3 3 3 3 4 4 4 3 4 5 7 7 7 7 8 11 15 16 17 15 17 17 19 18 15 16 16 17 17 16 16 14 17 18 17 17 15 15 15 13 15 16
3 3 3 3 3 3 3 3 3 3 4 4 3 4 7 9 8 6 7 8 12 14 15 16 15 14 15 16 17 17 14 15 16 16 16 16 15 16 17 15 16 15 13 14 15 16 16
3 3 3 3 3 3 3 3 3 3 4 3 3 3 8 9 5 6 7 9 12 13 14 14 16 15 15 15 15 16 15 16 16 15 14 15 15 14 15 18 17 14 14 14 14 15 16
3 3 3 3 3 3 3 3 3 3 3 4 4 4 8 7 5 6 7 8 11 12 12 14 14 15 15 14 14 16 15 16 16 15 14 14 14 13 15 16 18 16 15 15 15 14 14
3 3 3 3 3 3 3 4 3 3 3 3 2 2 4 4 4 7 8 9 10 12 13 13 14 14 14 14 15 15 16 16 15 15 15 15 14 14 13 13 11 14 15 16 14 14 15
3 3 3 3 3 3 3 3 3 3 3 3 2 4 6 2 6 5 7 8 8 11 13 14 13 13 13 13 14 13 14 15 16 14 15 14 13 14 15 16 13 12 12 14 14 15 14
3 3 3 3 3 3 3 3 3 3 3 2 3 3 5 6 7 8 8 8 9 10 11 11 12 13 13 13 13 13 13 13 13 14 15 15 13 14 14 16 18 15 16 15 14 14 15
2 3 3 3 4 4 3 3 3 3 3 3 3 3 3 5 6 7 6 9 10 11 11 12 12 9 10 11 12 12 12 12 12 12 12 13 13 13 13 15 15 15 17 16 16 16 17
2 3 3 3 4 4 4 4 3 3 3 3 4 4 4 2 5 7 9 10 10 11 10 11 11 9 11 9 12 13 13 12 12 12 13 12 12 13 11 13 13 17 19 20 20 19 19
2 2 3 3 3 4 4 4 4 3 3 3 4 4 3 2 6 7 9 10 10 11 10 10 10 10 8 9 9 10 10 11 11 12 12 12 11 10 11 12 15 17 19 19 19 17 17
2 2 3 3 4 4 4 4 4 4 3 3 3 4 3 4 4 8 8 9 7 7 9 9 8 7 8 6 8 9 8 11 12 13 13 13 11 10 10 12 11 16 19 20 20 15 17
2 3 3 4 4 4 4 4 4 4 4 3 3 4 4 3 5 6 6 7 6 8 6 7 8 6 7 6 6 7 9 13 11 11 11 10 10 10 10 10 12 17 18 19 16 13 15
3 3 3 4 4 4 4 4 4 4 4 3 3 4 4 3 5 6 7 6 7 6 4 7 6 6 6 6 6 7 7 10 11 12 11 11 10 9 10 10 11 16 17 15 13 14 14
3 3 4 4 4 4 4 4 4 4 4 3 3 3 4 4 5 6 7 7 8 8 6 5 6 6 7 7 7 7 7 9 9 10 12 10 12 10 11 11 11 12 13 12 14 13 13

GFSGBSN_925_temp_093.txt.gz
Temp
7 7 7 7 7 7 7 7 7 7 7 7 7 7 7 6 6 6 6 7 7 7 6 6 6 7 7 8 10 19 18 17 18 17 17 17 17 17 17 18 18 17 19 20 20 20 20
6 6 6 6 6 6 6 7 7 7 7 7 7 7 7 6 6 6 6 7 7 7 7 6 6 7 7 7 15 15 15 17 17 17 17 17 18 18 18 18 18 20 20 20 20 20 21
6 6 6 6 6 6 6 6 7 6 7 7 7 7 7 7 7 7 7 7 7 7 7 6 6 7 8 8 15 15 15 16 16 17 17 18 19 18 19 19 19 20 20 20 19 20 20
6 6 6 6 6 6 6 6 6 6 6 6 6 7 7 7 7 7 7 7 7 8 8 6 6 7 8 10 12 11 16 15 16 17 16 19 20 19 18 19 19 20 19 18 20 20 21
6 6 6 6 5 5 5 6 6 6 6 6 6 6 6 7 7 6 7 7 8 9 7 6 7 7 8 12 12 16 14 14 17 17 18 19 19 18 19 17 16 17 16 17 19 21 21
6 5 5 5 5 5 5 5 5 5 6 6 6 6 6 6 6 6 6 7 10 8 7 7 8 8 9 14 16 17 17 16 18 17 18 18 15 15 14 15 15 16 16 17 18 20 19
5 5 5 5 5 5 5 5 5 5 5 5 5 6 6 6 6 6 6 6 8 9 9 9 10 10 12 14 15 16 17 17 17 16 15 16 14 13 14 15 17 17 17 16 17 19 19
5 5 5 5 5 5 5 5 5 5 5 5 5 5 6 6 6 6 6 6 8 6 8 10 10 11 11 12 12 13 16 17 16 14 15 15 13 15 15 16 16 16 16 16 17 18 18
4 4 4 4 4 4 4 4 4 4 4 4 4 5 6 5 6 6 5 6 7 6 7 10 11 11 12 12 11 12 14 15 15 14 13 13 15 16 15 16 15 15 15 15 16 17 17
4 4 4 4 4 4 4 4 4 4 4 4 4 5 5 5 6 5 5 7 7 6 7 10 10 11 13 14 12 15 16 15 15 14 14 14 15 15 14 15 15 14 16 16 16 15 14
4 4 4 4 4 4 4 4 4 4 4 4 4 5 5 5 4 4 6 6 7 7 7 14 14 15 14 15 16 14 16 16 14 14 14 14 14 13 14 14 14 14 15 15 15 14 13
3 3 4 4 4 4 4 4 4 3 3 4 4 4 5 5 4 5 5 6 7 8 8 14 16 14 14 16 17 15 16 16 15 14 15 14 14 14 14 14 14 15 15 15 14 14 13
3 3 3 3 3 3 3 3 3 3 3 4 4 4 4 4 4 5 5 5 6 8 13 15 15 16 15 15 16 16 15 14 13 13 13 14 14 14 14 13 13 13 13 11 13 13 13
3 3 3 3 3 3 3 3 3 3 3 4 3 4 4 4 5 4 4 6 7 11 12 14 14 15 15 16 16 16 14 13 14 13 11 12 13 13 14 14 12 12 14 13 14 14 14
3 3 3 3 3 3 3 3 3 3 3 3 3 4 4 6 5 4 3 5 9 11 10 9 13 15 15 17 16 15 14 13 13 13 14 12 13 15 14 14 14 12 13 14 13 13 14
3 3 3 3 3 3 3 3 3 3 3 3 3 3 3 5 4 4 3 6 9 11 10 10 12 14 13 14 15 14 14 14 14 14 14 14 13 15 14 14 14 13 13 13 13 14 15
3 3 3 3 3 3 3 3 3 3 3 3 3 2 5 4 4 4 2 6 9 11 10 7 11 13 13 13 14 14 13 14 15 14 15 14 13 14 13 13 12 13 12 12 12 13 15
3 3 2 2 3 3 3 3 3 3 3 3 3 2 4 4 2 2 2 6 8 10 11 7 11 12 12 13 13 14 12 13 15 15 14 14 13 11 13 15 14 13 13 13 13 14 14
3 2 2 2 3 3 3 3 4 4 3 3 2 3 5 5 4 -1 4 7 9 9 9 6 8 12 12 12 12 14 14 14 15 14 14 14 12 11 13 14 13 12 12 11 12 12 13
2 2 2 3 3 3 3 3 4 3 3 3 1 0 1 2 3 4 5 7 7 10 10 10 9 11 12 11 12 13 13 14 14 14 14 13 12 12 10 11 13 11 13 13 12 13 13
2 2 2 2 2 3 3 3 3 3 3 3 1 0 2 3 4 3 5 6 7 8 10 11 11 10 9 9 10 10 11 13 13 13 14 12 11 12 12 13 13 13 13 14 13 12 13
2 2 2 2 2 3 3 4 3 3 3 2 1 2 3 3 5 5 5 6 7 7 9 9 10 10 9 9 9 9 9 11 12 12 12 11 11 12 11 13 13 12 14 14 14 14 13
2 2 2 2 2 3 3 4 4 3 3 2 1 2 1 2 4 4 4 4 5 6 8 10 10 9 9 10 9 9 9 9 10 12 11 11 11 10 11 12 12 12 14 14 15 14 14
2 2 2 2 2 3 3 4 3 3 3 3 3 1 -1 -0 3 5 5 6 7 7 7 9 10 10 10 10 9 9 10 10 10 10 10 10 10 9 9 11 10 14 15 14 15 13 13
2 2 2 2 2 3 3 3 3 3 3 3 3 2 1 -0 3 4 5 6 6 7 7 8 8 7 6 8 8 9 9 10 10 10 9 9 9 8 8 10 11 13 15 14 13 14 14
2 2 2 2 2 3 3 3 4 4 3 2 2 4 1 0 1 4 5 5 5 4 5 7 7 6 7 5 6 8 8 10 10 11 10 8 9 8 7 9 8 13 14 14 14 12 14
2 1 2 2 2 3 3 3 4 4 4 3 2 3 3 0 1 4 4 4 5 4 4 4 6 6 5 4 7 7 8 10 9 10 10 7 7 8 8 9 9 13 11 13 13 12 12
1 1 1 2 2 3 3 4 4 4 4 3 3 3 2 -1 2 4 4 4 4 4 5 5 3 5 5 4 5 6 6 8 9 10 10 8 7 7 8 9 8 10 11 12 11 10 10
1 1 1 2 3 3 3 4 4 4 4 3 3 3 2 2 2 4 5 5 5 6 3 4 4 5 6 6 6 6 4 4 7 8 9 8 9 8 8 9 9 9 8 8 8 7 7

GFSGBSN_925_temp_096.txt.gz
Temp
6 6 6 6 6 6 6 6 6 6 7 7 7 6 6 6 6 6 7 7 6 6 6 6 6 6 7 7 8 17 16 15 16 15 16 16 16 16 16 17 17 16 18 18 19 19 19
6 6 6 6 6 6 6 6 6 6 6 6 6 6 6 6 6 6 7 7 7 6 6 6 6 6 7 6 12 14 14 14 15 16 16 16 16 17 17 17 17 18 18 18 18 19 19
6 6 6 6 6 6 6 5 6 6 6 6 6 6 6 6 6 6 6 7 7 7 6 6 6 6 7 7 13 14 13 13 13 15 16 17 18 18 17 18 18 18 17 17 17 18 18
6 6 6 6 5 5 5 5 5 5 5 5 6 6 6 6 6 6 6 7 7 8 7 7 6 6 7 10 10 11 11 12 15 15 15 17 18 17 17 18 18 18 18 16 18 18 19
6 5 5 5 5 5 5 5 5 5 5 5 5 5 6 6 6 6 6 7 8 8 7 8 6 7 7 10 10 14 12 11 15 14 15 17 17 16 17 16 16 16 15 16 18 19 20
5 5 5 5 5 5 5 5 5 5 5 5 5 5 5 6 6 6 6 7 9 8 7 7 8 7 9 12 14 15 14 13 16 14 16 15 14 14 13 14 15 15 15 15 16 18 19
5 5 5 5 5 5 5 5 5 5 4 5 5 5 5 5 5 6 6 6 7 7 7 8 9 8 10 13 13 15 15 15 16 15 14 14 14 13 14 15 17 17 16 16 16 18 18
4 4 4 4 4 4 5 5 4 4 4 4 4 4 4 4 5 6 6 4 6 4 5 8 8 8 10 11 11 13 14 15 15 14 14 14 13 15 14 15 15 15 15 14 15 17 17
4 4 4 4 4 4 4 4 4 4 4 4 4 4 4 4 5 6 4 5 6 5 6 9 10 10 10 11 10 11 13 15 15 14 13 13 15 14 15 14 14 14 14 15 15 16 16
4 4 4 4 4 4 4 4 4 4 4 4 4 4 4 4 5 5 5 6 6 5 7 9 9 10 12 11 10 13 14 15 15 14 13 13 15 15 14 14 14 14 15 15 15 15 13
4 3 3 3 4 3 3 4 4 4 4 3 3 3 4 4 4 3 6 5 6 5 6 13 12 13 13 12 14 12 14 14 14 14 14 14 13 13 14 14 14 14 14 15 15 13 13
3 3 3 3 3 3 3 3 3 3 3 3 3 3 3 4 4 5 5 5 6 6 7 12 13 12 11 12 15 13 14 15 14 14 14 14 14 14 14 14 14 14 14 14 13 13 11
3 3 3 3 3 3 3 3 3 3 3 3 3 3 3 3 3 5 4 4 6 7 11 12 11 12 12 14 15 14 14 13 13 13 12 13 13 13 14 13 13 13 13 9 12 13 13
3 3 3 3 3 3 3 3 3 3 3 3 3 3 4 4 4 4 4 4 5 10 10 11 11 11 12 15 15 15 13 12 13 13 11 11 12 12 13 14 12 12 13 11 13 13 14
3 3 3 3 3 3 3 3 3 3 3 3 3 3 3 4 4 3 1 3 7 9 8 8 10 12 13 15 15 14 13 12 13 12 13 12 13 13 13 14 13 12 12 13 12 13 13
3 3 3 3 3 3 3 3 3 3 3 3 3 2 3 4 3 3 1 4 7 9 7 7 9 10 11 13 14 13 13 13 13 13 14 13 13 14 13 14 13 13 13 12 12 13 13
3 3 3 2 2 3 3 3 3 3 3 3 3 1 4 4 3 3 2 3 7 9 7 7 7 8 8 12 13 13 13 13 14 13 14 14 13 13 13 13 12 12 12 11 12 12 14
2 2 2 2 2 3 3 3 3 4 3 3 3 2 4 3 3 1 -0 5 7 6 7 6 6 8 8 10 12 11 11 13 14 14 13 13 11 12 13 13 13 13 13 13 13 13 13
2 2 2 2 2 3 3 3 4 3 3 3 2 1 3 4 2 3 3 5 7 8 9 7 7 7 7 9 10 10 10 12 13 14 13 13 11 12 12 13 13 12 13 12 11 11 12
2 2 2 2 2 2 3 3 3 3 3 3 1 0 -1 3 3 3 4 4 6 8 9 9 7 6 8 9 11 10 9 12 13 13 13 13 11 12 11 11 12 11 12 13 12 12 12
2 2 2 2 2 2 3 3 3 3 3 3 2 -0 1 1 3 3 4 5 5 7 8 8 6 7 8 8 8 9 11 11 12 12 12 12 11 12 12 12 12 12 12 12 13 12 12
2 2 2 2 2 2 2 3 3 3 3 2 -2 1 3 2 3 3 4 4 5 6 6 7 8 9 9 9 9 8 9 9 10 11 11 11 10 11 11 12 12 11 12 12 13 13 13
2 2 2 2 2 2 2 3 3 3 3 1 1 1 1 2 3 4 4 4 4 5 5 8 9 9 8 8 9 9 9 9 10 10 10 11 10 10 10 11 11 10 12 12 13 13 13
2 2 2 2 2 2 3 3 3 3 3 3 2 1 -1 -0 2 4 4 5 6 6 6 8 8 8 7 6 8 9 9 9 9 9 9 10 10 9 9 10 8 12 13 13 13 13 13
2 2 2 2 2 2 2 3 3 3 3 3 3 2 1 0 2 3 4 5 5 5 6 6 7 6 5 6 8 9 8 10 10 10 9 9 9 8 8 9 10 11 13 12 12 13 13
2 2 2 2 2 2 2 3 3 3 3 2 2 3 1 0 1 3 3 4 4 4 4 6 6 5 5 5 5 8 8 10 10 10 8 8 8 9 7 8 7 11 11 11 12 11 11
1 1 2 2 1 2 2 3 3 3 4 3 2 3 1 1 1 2 3 5 4 4 4 4 5 6 5 4 6 7 8 9 9 10 10 7 7 8 8 9 9 10 9 11 12 10 9
1 2 1 1 1 2 2 3 3 4 4 3 3 2 2 -1 0 3 3 3 3 4 4 4 3 5 4 5 5 6 6 8 8 10 10 9 7 7 9 8 8 8 10 10 9 7 8
1 1 1 1 1 2 2 3 3 4 4 3 3 3 1 1 1 3 4 5 5 4 2 3 4 5 5 6 6 6 6 5 6 8 8 7 8 9 8 8 8 8 7 7 7 5 4

GFSGBSN_925_temp_102.txt.gz
Temp
6 6 6 6 6 6 6 6 6 6 6 6 6 6 6 6 6 6 6 6 7 7 6 6 6 6 7 12 14 17 15 13 16 16 18 20 20 21 22 23 23 22 24 25 24 25 25
6 6 6 6 6 6 6 5 5 5 5 5 5 6 6 6 6 6 6 6 7 7 7 6 6 6 8 9 14 13 13 13 15 16 19 19 21 22 22 23 22 24 23 24 24 24 24
6 6 6 6 5 5 5 5 5 5 5 5 5 5 5 5 5 5 5 6 7 8 7 6 6 7 8 11 13 14 13 14 14 15 18 19 20 21 22 21 23 23 22 23 23 23 23
6 5 5 5 5 5 5 5 5 5 5 5 5 5 5 5 6 6 6 7 8 8 8 8 7 7 10 11 12 12 13 13 13 13 14 17 17 20 21 23 21 21 22 22 24 24 24
6 5 5 5 5 5 5 5 5 5 5 5 5 5 5 5 5 5 6 7 9 8 8 8 8 8 11 12 12 13 14 14 15 14 14 16 18 19 20 20 21 21 22 22 23 24 24
5 5 5 5 5 5 5 5 5 4 4 4 4 4 4 4 5 6 6 7 8 8 9 9 9 8 12 15 14 13 14 13 15 15 15 15 18 19 20 20 20 21 21 22 23 25 23
5 5 5 5 5 5 5 5 5 4 4 4 4 4 4 4 5 5 6 9 11 12 8 9 12 12 13 14 14 15 15 15 15 16 17 17 16 18 20 20 21 21 22 22 24 23 22
4 4 4 4 4 4 4 4 4 4 4 4 4 4 4 4 5 6 7 9 7 5 5 9 10 10 10 11 11 15 15 15 16 16 17 16 17 20 21 20 19 20 21 21 22 22 21
4 4 4 4 4 4 4 4 4 4 4 4 4 4 4 5 5 6 7 7 6 6 6 10 12 12 13 12 11 12 16 16 17 17 17 17 20 20 20 19 18 20 20 21 20 21 22
4 4 3 3 4 4 4 4 4 4 4 3 3 3 3 4 6 6 8 6 6 5 7 12 13 13 13 13 12 14 15 17 17 17 17 17 19 18 18 18 19 19 21 20 20 19 20
4 3 3 3 4 3 3 3 3 3 3 3 3 3 3 4 5 7 7 5 6 5 9 14 14 13 13 12 14 16 14 16 17 17 16 16 17 17 17 18 19 19 19 19 19 20 20
3 3 4 3 3 3 3 3 3 3 3 3 3 3 3 5 5 6 5 5 6 8 10 13 14 13 14 13 13 16 14 17 18 17 17 17 17 18 18 18 18 19 18 18 19 19 18
3 3 4 3 3 3 3 3 3 3 3 4 4 4 4 4 6 4 4 8 9 9 14 13 11 13 13 12 15 14 14 14 16 15 15 16 16 16 17 16 17 18 18 17 16 15 19
3 3 3 3 3 3 3 3 3 3 4 4 4 5 4 4 4 3 6 9 7 11 11 12 12 13 11 10 14 15 14 15 17 18 17 16 14 15 16 18 17 17 18 19 19 19 21
3 3 3 3 3 3 3 3 3 3 4 4 4 5 5 5 3 4 8 7 9 10 9 9 10 11 9 10 10 15 15 16 17 18 16 16 15 16 17 17 18 17 16 18 16 17 17
3 3 3 3 3 3 3 3 3 3 4 4 5 5 6 3 3 6 7 6 8 9 9 9 7 9 7 10 9 15 16 17 16 17 18 17 14 16 16 17 16 17 18 15 16 16 17
3 3 3 3 3 3 3 3 3 4 4 4 5 8 5 3 4 8 7 8 8 9 9 7 7 7 7 8 8 10 15 16 17 16 17 17 17 14 16 16 17 16 16 16 17 16 17
3 3 3 3 3 3 3 3 3 4 4 4 6 6 4 4 7 7 7 7 7 9 10 9 9 8 6 7 7 9 13 15 15 17 16 16 17 15 16 16 18 17 17 17 17 14 16
3 2 3 3 3 3 3 3 3 4 4 4 6 7 5 4 6 7 8 8 8 8 8 8 8 7 7 7 8 10 12 14 15 16 15 16 16 14 14 15 17 16 17 15 12 14 15
2 2 2 2 3 2 3 3 3 3 4 4 5 5 7 6 5 6 6 7 8 9 9 8 7 6 7 8 8 9 10 12 13 14 12 15 15 17 17 16 16 15 16 16 16 15 16
2 2 2 2 2 2 2 3 3 3 3 4 4 5 5 5 7 6 7 8 8 6 7 6 7 8 7 8 8 8 8 10 11 12 12 14 14 15 15 15 16 16 16 16 16 16 15
3 2 2 2 2 2 2 2 3 3 3 5 5 6 6 6 6 6 6 7 7 5 5 7 8 9 10 9 8 8 8 9 10 12 12 12 13 15 14 15 15 15 16 16 16 16 17
2 2 2 2 2 2 2 2 3 3 3 5 3 4 6 5 8 8 7 6 6 7 9 10 9 10 10 8 8 9 10 10 11 12 13 14 14 14 13 14 14 14 15 15 16 17 17
2 2 2 2 2 2 2 2 3 3 4 4 5 6 6 6 7 7 7 7 7 8 8 9 9 9 10 9 11 12 12 12 12 13 13 14 14 14 13 13 13 14 16 16 16 15 14
2 2 2 2 2 2 2 2 3 3 3 4 4 5 7 6 7 7 7 7 8 9 9 8 9 9 9 10 12 13 13 13 13 13 13 14 14 13 13 14 14 14 13 13 13 14 11
2 2 2 2 2 2 2 2 3 3 3 2 2 4 5 6 8 7 7 7 8 8 9 9 10 9 10 10 11 11 11 12 13 13 13 13 13 14 13 12 12 12 13 14 14 13 10
1 2 2 2 2 2 2 2 2 3 3 2 2 2 2 5 8 6 8 7 8 8 8 9 8 9 10 10 11 11 11 12 12 12 12 12 12 12 12 12 13 11 13 14 13 9 7
2 1 1 2 2 2 2 2 2 3 3 3 2 2 2 4 7 6 7 7 8 8 7 8 9 9 8 9 9 9 10 11 12 11 11 12 12 12 12 11 11 7 13 11 7 5 5
2 1 1 2 2 1 2 2 2 2 3 3 2 2 2 2 6 4 5 5 6 7 7 8 7 7 8 7 7 7 9 9 9 11 12 9 8 9 8 7 5 4 4 3 3 3 3

GFSGBSN_925_temp_105.txt.gz
Temp
7 7 7 6 6 6 6 6 6 6 6 6 6 6 6 6 6 6 7 7 7 8 8 7 6 6 8 14 16 18 17 17 16 19 20 22 22 23 23 25 26 26 27 28 29 29 29
7 6 6 6 6 6 6 6 6 6 6 5 5 5 6 5 5 5 5 6 7 7 8 7 6 6 9 12 16 17 17 16 17 19 20 22 23 24 24 25 26 27 27 27 28 28 27
6 6 6 6 6 6 6 6 6 5 5 5 5 5 5 5 5 5 6 7 7 8 8 8 7 8 11 14 16 17 17 17 17 18 20 21 22 23 24 24 26 26 25 26 26 27 27
6 6 6 5 6 5 5 5 5 5 5 5 5 5 5 5 5 6 6 7 8 8 8 9 8 9 13 15 15 15 16 17 17 17 18 19 21 22 23 24 24 24 24 24 26 26 27
6 6 5 5 5 5 5 5 5 5 5 5 5 5 5 5 5 5 6 8 9 8 8 9 9 10 13 14 14 15 15 17 17 18 18 18 19 20 22 21 22 23 23 24 25 28 27
6 5 5 5 5 5 5 5 5 5 4 4 5 4 4 5 5 6 7 9 10 9 9 11 13 11 14 16 17 16 16 17 17 18 18 18 19 20 20 22 21 23 23 25 26 27 28
6 5 5 5 5 5 5 5 5 4 4 4 4 4 4 4 5 6 7 12 14 15 13 13 15 15 17 17 16 17 17 18 18 17 17 18 18 19 21 22 23 24 25 25 26 27 27
5 5 5 5 4 5 5 4 4 4 4 4 4 4 4 5 6 7 8 12 10 8 7 12 13 13 14 14 13 15 16 17 17 17 18 19 18 21 22 23 22 22 22 23 25 27 25
5 4 4 4 4 4 4 4 4 4 4 4 4 4 4 5 6 8 10 10 9 9 9 12 15 15 16 15 15 15 17 17 17 17 19 19 20 21 21 22 21 21 21 22 23 25 26
4 4 4 4 4 4 4 4 4 4 4 4 4 4 4 6 7 9 11 9 9 8 8 15 15 16 15 16 15 17 17 17 17 17 19 20 22 21 21 20 21 19 21 22 22 22 22
4 4 4 4 4 4 4 4 4 4 4 4 4 4 5 5 7 10 9 8 8 8 10 17 16 16 17 15 16 16 18 17 17 18 19 19 20 20 20 20 21 20 21 21 22 21 22
4 3 4 3 4 4 4 4 4 4 4 4 4 4 5 8 8 9 8 7 9 8 11 15 17 15 14 16 17 17 17 17 18 18 20 20 21 21 21 20 19 20 20 20 21 21 20
3 4 4 3 3 3 4 3 4 4 4 4 4 5 5 7 9 7 7 10 11 10 15 14 13 14 14 14 13 15 15 15 16 15 14 18 18 20 21 19 20 20 19 18 17 19 20
3 3 3 3 3 3 3 3 4 4 4 4 5 5 6 8 7 6 9 11 10 13 12 14 13 13 13 11 11 10 15 16 17 18 18 17 13 18 19 19 18 19 19 19 17 19 22
3 3 3 3 3 3 3 3 4 4 4 5 6 8 9 7 6 7 11 10 11 11 12 11 12 12 11 11 10 8 14 17 18 19 12 17 13 16 18 20 18 16 17 20 17 20 20
3 3 3 3 3 3 3 3 4 4 4 5 8 9 9 6 6 8 10 10 11 12 12 11 8 10 8 9 8 11 16 19 18 19 16 18 15 17 18 19 19 18 20 17 18 18 19
3 3 3 3 3 3 3 3 4 4 5 5 8 11 8 6 7 10 8 11 11 12 12 9 8 8 7 7 8 11 17 19 20 18 19 17 17 16 17 18 18 17 17 18 19 19 19
3 3 3 3 3 3 3 3 4 4 5 5 9 9 8 7 9 11 10 11 11 11 12 11 10 8 7 8 9 9 13 19 20 19 18 19 17 15 15 20 21 20 19 19 18 18 19
3 3 3 3 3 3 3 3 4 4 4 8 11 11 8 8 9 10 11 11 12 11 11 10 8 7 7 7 8 7 13 16 17 18 18 19 17 15 13 17 18 17 19 19 17 17 18
3 3 3 3 3 3 3 3 3 4 4 6 8 8 11 11 9 10 10 11 11 11 10 10 7 7 8 8 7 8 11 12 15 15 14 16 17 16 16 18 18 17 17 18 18 17 18
3 3 3 3 3 3 3 3 3 4 4 5 8 8 9 9 10 9 10 11 10 9 10 10 8 11 9 8 8 8 8 12 14 13 15 16 14 14 17 18 18 17 17 17 17 18 17
2 3 2 2 2 2 2 3 3 3 4 7 4 10 10 10 10 10 9 10 10 10 9 9 11 11 12 11 9 8 10 10 9 11 12 14 15 17 16 17 18 17 18 18 18 18 19
2 3 3 2 2 2 2 2 3 4 4 8 8 8 10 9 11 11 9 9 10 11 11 12 11 11 11 10 11 11 13 12 13 13 11 11 15 15 14 16 17 16 16 18 18 15 15
2 2 2 2 3 2 2 2 3 3 4 6 8 9 10 9 11 10 10 11 11 11 10 12 11 10 12 12 13 14 13 14 15 14 15 15 14 16 14 15 14 16 18 17 16 14 13
2 2 2 2 2 2 2 2 3 3 4 5 7 8 9 8 11 10 10 10 12 12 12 12 11 11 12 13 13 14 14 13 15 15 15 16 16 15 15 16 15 15 15 15 15 10 12
2 2 2 2 2 2 2 2 3 3 3 4 6 5 7 7 10 9 10 10 11 11 12 12 12 12 12 14 13 13 13 14 14 15 16 15 16 16 15 15 13 11 14 15 16 10 9
2 2 2 2 2 2 2 2 2 3 3 3 3 4 6 6 10 9 10 9 10 11 11 12 11 11 12 12 12 13 13 14 13 14 14 14 14 14 14 15 12 7 9 13 12 8 6
2 2 2 2 2 2 2 2 2 2 3 3 4 4 5 6 9 9 9 9 10 11 10 11 11 10 9 10 10 10 11 13 13 14 13 13 12 13 14 14 11 5 11 9 6 4 5
2 2 2 2 2 2 2 2 2 2 2 3 3 3 2 5 8 6 7 7 8 9 9 10 9 9 9 9 9 9 10 12 12 10 13 11 10 10 8 7 4 4 4 3 5 5 4